KB9ZI Weather Reports


time (UTC)temp
F
wind
direction
speed
knots
gust
knots
rain 1hr
in
rain 24hr
in
rain mn
in
humidity
%
barometer
mb
20240527190538 69 62 0.0 0.0 0.00 0.10 0.10 70 1008.4
20240527190525 69 61 0.0 0.0 0.00 0.10 0.10 70 1008.4
20240527190433 70 56 0.0 0.0 0.00 0.10 0.10 71 1008.4
20240527190332 70 65 0.0 0.0 0.00 0.10 0.10 71 1008.4
20240527190229 70 63 0.0 0.0 0.00 0.10 0.10 71 1008.5
20240527190142 70 72 0.0 0.0 0.00 0.10 0.10 71 1008.5
20240527190026 70 130 0.0 0.0 0.00 0.10 0.10 70 1008.5
20240527185927 70 251 0.0 0.0 0.00 0.10 0.10 69 1008.6
20240527185826 70 250 0.0 0.0 0.00 0.10 0.10 67 1008.6
20240527185725 70 250 0.0 0.0 0.00 0.10 0.10 67 1008.5
20240527185628 70 250 0.0 0.0 0.00 0.10 0.10 68 1008.6
20240527185526 71 250 0.0 0.0 0.00 0.10 0.10 69 1008.6
20240527185425 71 247 0.0 0.0 0.00 0.10 0.10 69 1008.7
20240527185328 71 268 0.0 0.0 0.00 0.10 0.10 71 1008.7
20240527185225 71 58 0.0 0.0 0.00 0.10 0.10 72 1008.6
20240527185129 71 59 0.0 0.0 0.00 0.10 0.10 74 1008.6
20240527185026 70 63 0.0 0.0 0.00 0.10 0.10 71 1008.7
20240527184926 70 62 0.0 0.0 0.00 0.10 0.10 71 1008.6
20240527184825 70 62 0.0 0.0 0.00 0.10 0.10 72 1008.6
20240527184727 70 65 0.0 0.0 0.00 0.10 0.10 72 1008.7
20240527184628 70 65 0.0 0.0 0.00 0.10 0.10 73 1008.6
20240527184530 70 65 0.0 0.0 0.00 0.10 0.10 74 1008.5
20240527184517 70 65 0.0 0.0 0.00 0.10 0.10 74 1008.6
20240527184425 70 65 0.0 0.0 0.00 0.10 0.10 75 1008.6
20240527184326 69 72 0.0 0.0 0.00 0.10 0.10 76 1008.6
20240527184225 69 130 0.0 0.0 0.00 0.10 0.10 75 1008.7
20240527184128 69 79 0.0 0.0 0.00 0.10 0.10 75 1008.7
20240527184030 69 63 0.0 0.0 0.00 0.10 0.10 73 1008.7
20240527184017 69 63 0.0 0.0 0.00 0.10 0.10 73 1008.8
20240527184006 68 80 0.0 0.0 0.00 0.10 0.10 75 1008.8
20240527183945 68 73 0.0 0.0 0.00 0.10 0.10 72 1008.8
20240527183909 68 76 0.0 0.0 0.00 0.10 0.10 73 1008.8
20240527183837 68 298 0.0 0.0 0.00 0.10 0.10 75 1008.8
20240527183810 68 300 0.0 0.0 0.00 0.10 0.10 75 1008.8
20240527183740 68 80 0.0 0.0 0.00 0.10 0.10 75 1008.8
20240527183507 68 262 0.0 0.0 0.00 0.10 0.10 74 1008.8
20240527183444 68 85 0.0 0.0 0.00 0.10 0.10 73 1008.8
20240527183417 68 262 0.0 0.0 0.00 0.10 0.10 73 1008.8
20240527183343 68 262 0.0 0.0 0.00 0.10 0.10 72 1008.8
20240527183315 68 262 0.0 0.0 0.00 0.10 0.10 71 1008.8
20240527183238 68 262 0.0 0.0 0.00 0.10 0.10 71 1008.8
20240527182929 68 262 0.0 0.0 0.00 0.10 0.10 76 1008.8
20240527182824 68 265 0.0 0.0 0.00 0.10 0.10 77 1008.8
20240527182727 68 226 0.0 0.0 0.00 0.10 0.10 77 1009.0
20240527182626 68 223 0.0 0.0 0.00 0.10 0.10 77 1009.0
20240527182517 68 224 0.0 0.0 0.00 0.10 0.10 78 1008.8
20240527182446 67 275 0.0 0.0 0.00 0.10 0.10 79 1009.2
20240527182434 68 178 0.0 0.0 0.00 0.10 0.10 77 1008.8
20240527182405 68 176 0.0 0.0 0.00 0.10 0.10 77 1009.0
20240527182334 67 189 0.0 0.0 0.00 0.10 0.10 77 1009.0
20240527182307 67 226 0.0 0.0 0.00 0.10 0.10 79 1009.1
20240527182237 67 275 0.0 0.0 0.00 0.10 0.10 79 1009.2
20240527181926 67 275 0.0 0.0 0.00 0.10 0.10 81 1009.2
20240527181826 67 264 0.0 0.0 0.00 0.10 0.10 82 1009.1
20240527181727 67 262 0.0 0.0 0.00 0.10 0.10 83 1009.2
20240527181627 67 262 0.0 0.0 0.00 0.10 0.10 83 1009.3
20240527181531 67 261 0.0 0.0 0.00 0.10 0.10 83 1009.2
20240527181515 67 261 0.0 0.0 0.00 0.10 0.10 83 1009.3
20240527181504 66 269 0.0 0.0 0.00 0.10 0.10 84 1009.4
20240527181441 67 252 0.0 0.0 0.00 0.10 0.10 83 1009.3
20240527181413 66 252 0.0 0.0 0.00 0.10 0.10 82 1009.3
20240527181344 66 269 0.0 0.0 0.00 0.10 0.10 82 1009.2
20240527181311 66 269 0.0 0.0 0.00 0.10 0.10 83 1009.3
20240527181237 66 269 0.0 0.0 0.00 0.10 0.10 84 1009.4
20240527180928 66 274 0.0 0.0 0.00 0.10 0.10 83 1009.4
20240527180825 66 271 0.0 0.0 0.00 0.10 0.10 82 1009.4
20240527180729 65 269 0.0 0.0 0.00 0.10 0.10 81 1009.4
20240527180627 65 269 0.0 0.0 0.00 0.10 0.10 81 1009.5
20240527180529 65 274 0.0 0.0 0.00 0.10 0.10 82 1009.5
20240527180515 65 268 0.0 0.0 0.00 0.10 0.10 82 1009.5
20240527180456 65 224 0.0 0.0 0.00 0.10 0.10 84 1009.5
20240527180439 65 250 0.0 0.0 0.00 0.10 0.10 83 1009.5
20240527180408 65 244 0.0 0.0 0.00 0.10 0.10 84 1009.5
20240527180340 65 289 0.0 0.0 0.00 0.10 0.10 84 1009.5
20240527180309 65 288 0.0 0.0 0.00 0.10 0.10 84 1009.5
20240527180236 65 227 0.0 0.0 0.00 0.10 0.10 84 1009.5
20240527175927 65 266 0.0 0.0 0.00 0.10 0.10 84 1009.5
20240527175826 64 323 0.0 0.0 0.00 0.10 0.10 84 1009.5
20240527175727 64 323 0.0 0.0 0.00 0.10 0.10 85 1009.5
20240527175626 64 266 0.0 0.0 0.00 0.10 0.10 86 1009.6
20240527175528 64 327 0.0 0.0 0.00 0.10 0.10 87 1009.6
20240527175511 64 289 0.0 0.0 0.00 0.10 0.10 87 1009.6
20240527175429 64 255 0.0 0.0 0.00 0.10 0.10 87 1009.6
20240527175327 64 300 0.0 0.0 0.00 0.10 0.10 88 1009.6
20240527175226 64 295 0.0 0.0 0.00 0.10 0.10 88 1009.6
20240527175127 64 258 0.0 0.0 0.00 0.10 0.10 89 1009.6
20240527175027 64 275 0.0 0.0 0.00 0.10 0.10 89 1009.6
20240527175012 64 200 0.0 0.0 0.00 0.10 0.10 89 1009.7
20240527174926 64 200 0.0 0.0 0.00 0.10 0.10 90 1009.7
20240527174827 64 251 0.0 0.0 0.00 0.10 0.10 90 1009.7
20240527174726 64 227 0.0 0.0 0.00 0.10 0.10 90 1009.7
20240527174627 63 226 0.0 0.0 0.00 0.10 0.10 90 1009.7
20240527174527 63 226 0.0 0.0 0.00 0.10 0.10 90 1009.7
20240527174510 63 226 0.0 0.0 0.00 0.10 0.10 90 1009.8
20240527174426 63 226 0.0 0.0 0.00 0.10 0.10 90 1009.8
20240527174327 63 235 0.0 0.0 0.00 0.10 0.10 91 1009.8
20240527174224 63 302 0.0 0.0 0.00 0.10 0.10 91 1009.8
20240527174128 63 303 0.0 0.0 0.00 0.10 0.10 91 1009.9
20240527174010 63 303 0.0 0.0 0.00 0.10 0.10 91 1009.8
20240527173927 62 320 0.0 0.0 0.00 0.10 0.10 91 1009.8
20240527173826 62 279 0.0 0.0 0.00 0.10 0.10 91 1009.8
20240527173726 62 265 0.0 0.0 0.00 0.10 0.10 92 1009.8
20240527173626 62 258 0.0 0.0 0.00 0.10 0.10 92 1009.8
20240527173526 62 257 0.0 0.0 0.00 0.10 0.10 91 1009.9
20240527173510 62 257 0.0 0.0 0.00 0.10 0.10 91 1009.8
20240527173425 62 234 0.0 0.0 0.00 0.10 0.10 91 1009.8
20240527173326 62 238 0.0 0.0 0.00 0.10 0.10 91 1009.7
20240527173225 62 237 0.0 0.0 0.00 0.10 0.10 91 1009.7
20240527173129 62 237 0.0 0.0 0.00 0.10 0.10 91 1009.8
20240527173025 62 237 0.0 0.0 0.00 0.10 0.10 91 1009.8
20240527173010 62 237 0.0 0.0 0.00 0.10 0.10 91 1009.7
20240527172925 62 209 0.0 0.0 0.00 0.10 0.10 91 1009.7
20240527172824 62 212 0.0 0.0 0.00 0.10 0.10 91 1009.7
20240527172726 62 204 0.0 0.0 0.00 0.10 0.10 91 1009.7
20240527172628 62 206 0.0 0.0 0.00 0.10 0.10 92 1009.7
20240527172503 61 207 0.0 0.0 0.00 0.10 0.10 91 1009.8
20240527172427 61 207 0.0 0.0 0.00 0.10 0.10 91 1009.8
20240527172326 61 207 0.0 0.0 0.00 0.10 0.10 91 1009.8
20240527172225 61 207 0.0 0.0 0.00 0.10 0.10 91 1009.8
20240527172128 61 207 0.0 0.0 0.00 0.10 0.10 92 1009.8
20240527172003 61 209 0.0 0.0 0.00 0.10 0.10 91 1009.8
20240527171927 61 209 0.0 0.0 0.00 0.10 0.10 91 1009.8
20240527171846 61 245 0.0 0.0 0.00 0.10 0.10 92 1009.8
20240527171837 61 209 0.0 0.0 0.00 0.10 0.10 91 1009.8
20240527171809 61 216 0.0 0.0 0.00 0.10 0.10 92 1009.8
20240527171738 61 244 0.0 0.0 0.00 0.10 0.10 92 1009.8
20240527171717 61 244 0.0 0.0 0.00 0.10 0.10 92 1009.8
20240527171425 61 245 0.0 0.0 0.00 0.10 0.10 92 1009.8
20240527171327 61 245 0.0 0.0 0.00 0.10 0.10 91 1009.8
20240527171226 61 244 0.0 0.0 0.00 0.10 0.10 91 1009.8
20240527171135 61 244 0.0 0.0 0.00 0.10 0.10 91 1009.8
20240527171026 61 244 0.0 0.0 0.00 0.10 0.10 92 1009.8
20240527170929 61 245 0.0 0.0 0.00 0.10 0.10 92 1009.8
20240527170922 60 245 0.0 0.0 0.00 0.10 0.10 92 1009.9
20240527170855 61 245 0.0 0.0 0.00 0.10 0.10 91 1009.8
20240527170827 61 245 0.0 0.0 0.00 0.10 0.10 92 1009.8
20240527170753 60 245 0.0 0.0 0.00 0.10 0.10 91 1009.9
20240527170722 60 245 0.0 0.0 0.00 0.10 0.10 92 1009.8
20240527170426 61 245 0.0 0.0 0.00 0.10 0.10 92 1009.9
20240527170328 60 245 0.0 0.0 0.00 0.10 0.10 92 1009.8
20240527170256 61 245 0.0 0.0 0.00 0.10 0.10 92 1009.9
20240527170158 60 247 0.0 0.0 0.00 0.10 0.10 92 1009.9
20240527170056 60 193 0.0 0.0 0.00 0.10 0.10 92 1010.0
20240527165939 60 193 0.0 0.0 0.00 0.10 0.10 92 1009.9
20240527165915 60 193 0.0 0.0 0.00 0.10 0.10 92 1009.9
20240527165908 60 214 0.0 0.0 0.00 0.10 0.10 92 1010.1
20240527165900 60 219 0.0 0.0 0.00 0.10 0.10 92 1010.1
20240527165818 60 192 0.0 0.0 0.00 0.10 0.10 92 1009.9
20240527165718 60 192 0.0 0.0 0.00 0.10 0.10 92 1009.9
20240527165355 60 220 0.0 0.0 0.00 0.10 0.10 92 1010.0
20240527165258 60 235 0.0 0.0 0.00 0.10 0.10 92 1010.1
20240527165157 60 250 0.0 0.0 0.00 0.10 0.10 92 1010.0
20240527165057 60 248 0.0 0.0 0.00 0.10 0.10 93 1010.0
20240527164959 60 247 0.0 0.0 0.00 0.10 0.10 93 1010.0
20240527164938 60 248 0.0 0.0 0.00 0.10 0.10 93 1010.0
20240527164912 60 250 0.0 0.0 0.00 0.10 0.10 93 1010.0
20240527164900 60 237 0.0 0.0 0.00 0.10 0.10 93 1010.0
20240527164855 60 235 0.0 0.0 0.00 0.10 0.10 93 1010.0
20240527164817 60 258 0.0 0.0 0.00 0.10 0.10 93 1010.0
20240527164716 60 248 0.0 0.0 0.00 0.10 0.10 93 1010.0
20240527164355 60 228 0.0 0.0 0.00 0.10 0.10 93 1010.0
20240527164254 60 227 0.0 0.0 0.00 0.10 0.10 93 1010.0
20240527164157 60 279 0.0 0.0 0.00 0.10 0.10 93 1010.0
20240527164054 60 279 0.0 0.0 0.00 0.10 0.10 93 1010.0
20240527163939 60 279 0.0 0.0 0.00 0.10 0.10 93 1010.0
20240527163857 60 276 0.0 0.0 0.00 0.10 0.10 94 1010.0
20240527163759 60 298 0.0 0.0 0.00 0.10 0.10 94 1010.0
20240527163657 60 317 0.0 0.0 0.00 0.10 0.10 94 1010.0
20240527163556 60 168 0.0 0.0 0.00 0.10 0.10 94 1010.0
20240527163458 60 176 0.0 0.0 0.00 0.10 0.10 94 1010.0
20240527163441 60 176 0.0 0.0 0.00 0.10 0.10 94 1009.9
20240527163356 60 178 0.0 0.0 0.00 0.10 0.10 94 1010.0
20240527163258 60 185 0.0 0.0 0.01 0.10 0.10 94 1010.0
20240527163157 60 209 0.0 0.0 0.01 0.10 0.10 94 1009.9
20240527163058 60 209 0.0 0.0 0.01 0.10 0.10 94 1009.9
20240527162936 60 209 0.0 0.0 0.01 0.10 0.10 94 1010.0
20240527162855 60 209 0.0 0.0 0.01 0.10 0.10 94 1010.0
20240527162757 60 209 0.0 0.0 0.01 0.10 0.10 94 1009.9
20240527162700 60 209 0.0 0.0 0.01 0.10 0.10 94 1009.9
20240527162553 59 209 0.0 0.0 0.01 0.10 0.10 94 1009.9
20240527162438 59 209 0.0 0.0 0.01 0.10 0.10 94 1009.9
20240527162326 59 209 0.0 0.0 0.02 0.10 0.10 94 1009.9
20240527162226 59 209 0.0 0.0 0.02 0.10 0.10 94 1009.9
20240527162128 59 209 0.0 0.0 0.02 0.10 0.10 94 1009.9
20240527162025 59 209 0.0 0.0 0.02 0.10 0.10 94 1009.9
20240527161924 59 209 0.0 0.0 0.02 0.10 0.10 94 1009.9
20240527161824 59 209 0.0 0.0 0.02 0.10 0.10 94 1009.9
20240527161726 59 207 0.0 0.0 0.02 0.10 0.10 94 1009.9
20240527161624 59 207 0.0 0.0 0.03 0.10 0.10 94 1009.9
20240527161526 59 207 0.0 0.0 0.03 0.10 0.10 94 1009.9
20240527161425 59 207 0.0 0.0 0.04 0.10 0.10 94 1009.8
20240527161324 59 207 0.0 0.0 0.04 0.10 0.10 94 1009.9
20240527161225 59 207 0.0 0.0 0.05 0.10 0.10 94 1009.8
20240527161125 59 207 0.0 0.0 0.05 0.10 0.10 94 1009.7
20240527161024 59 207 0.0 0.0 0.06 0.10 0.10 94 1009.8
20240527160935 59 207 0.0 0.0 0.06 0.10 0.10 95 1009.8
20240527160926 59 209 0.0 0.0 0.06 0.10 0.10 95 1009.8
20240527160826 59 209 0.0 0.0 0.06 0.10 0.10 95 1009.7
20240527160704 59 209 0.0 0.0 0.07 0.10 0.10 95 1009.8
20240527160607 59 209 0.0 0.0 0.07 0.10 0.10 95 1009.7
20240527160503 59 209 0.0 0.0 0.07 0.10 0.10 95 1009.6
20240527160436 59 209 0.0 0.0 0.07 0.10 0.10 95 1009.6
20240527160403 59 209 0.0 0.0 0.07 0.10 0.10 95 1009.7
20240527160302 58 209 0.0 0.0 0.07 0.10 0.10 94 1009.7
20240527160202 58 209 0.0 0.0 0.07 0.10 0.10 94 1009.7
20240527160103 58 209 0.0 0.0 0.07 0.10 0.10 94 1009.7
20240527160001 58 209 0.0 0.0 0.07 0.10 0.03 94 1009.6
20240527155934 58 209 0.0 0.0 0.07 0.10 0.10 94 1009.6
20240527155913 58 281 0.0 0.0 0.07 0.10 0.10 94 1009.6
20240527155905 58 209 0.0 0.0 0.07 0.10 0.10 94 1009.7
20240527155838 58 209 0.0 0.0 0.07 0.10 0.10 94 1009.7
20240527155807 58 279 0.0 0.0 0.07 0.10 0.10 94 1009.7
20240527155732 58 281 0.0 0.0 0.07 0.10 0.10 94 1009.7
20240527155701 58 281 0.0 0.0 0.07 0.10 0.10 94 1009.6
20240527155353 58 281 0.0 0.0 0.07 0.10 0.10 94 1009.7
20240527155251 58 281 0.0 0.0 0.07 0.10 0.10 94 1009.6
20240527155152 58 281 0.0 0.0 0.07 0.10 0.10 94 1009.6
20240527155049 58 281 0.0 0.0 0.07 0.10 0.10 94 1009.6
20240527154935 58 281 0.0 0.0 0.07 0.10 0.10 94 1009.6
20240527154846 58 282 0.0 0.0 0.07 0.10 0.10 94 1009.7
20240527154744 58 282 0.0 0.0 0.07 0.10 0.10 94 1009.6
20240527154645 58 282 0.0 0.0 0.07 0.10 0.10 94 1009.6
20240527154542 58 282 0.0 0.0 0.07 0.10 0.10 94 1009.7
20240527154434 58 282 0.0 0.0 0.07 0.10 0.10 94 1009.5
20240527154340 58 282 0.0 0.0 0.07 0.10 0.10 94 1009.6
20240527154234 58 282 0.0 0.0 0.07 0.10 0.10 94 1009.5
20240527154202 58 282 0.0 0.0 0.07 0.10 0.10 94 1009.6
20240527154104 58 282 0.0 0.0 0.07 0.10 0.10 94 1009.5
20240527154007 58 282 0.0 0.0 0.07 0.10 0.10 94 1009.6
20240527153928 58 282 0.0 0.0 0.07 0.10 0.10 94 1009.6
20240527153903 58 282 0.0 0.0 0.07 0.10 0.10 94 1009.6
20240527153804 58 282 0.0 0.0 0.07 0.10 0.10 94 1009.6
20240527153659 58 282 0.0 0.0 0.07 0.10 0.10 94 1009.5
20240527153558 58 282 0.0 0.0 0.07 0.10 0.10 94 1009.5
20240527153504 58 282 0.0 0.0 0.07 0.10 0.10 94 1009.5
20240527153426 58 282 0.0 0.0 0.07 0.10 0.10 94 1009.5
20240527153356 58 282 0.0 0.0 0.06 0.09 0.09 94 1009.4
20240527153256 58 282 0.0 0.0 0.06 0.09 0.09 94 1009.4
20240527153155 58 282 0.0 0.0 0.06 0.09 0.09 94 1009.5
20240527153051 58 282 0.0 0.0 0.06 0.09 0.09 94 1009.4
20240527152924 58 282 0.0 0.0 0.06 0.09 0.09 94 1009.4
20240527152847 58 282 0.0 0.0 0.06 0.09 0.09 94 1009.4
20240527152743 58 282 0.0 0.0 0.06 0.09 0.09 94 1009.4
20240527152640 58 282 0.0 0.0 0.06 0.09 0.09 94 1009.4
20240527152541 58 282 0.0 0.0 0.06 0.09 0.09 94 1009.4
20240527152444 58 282 0.0 0.0 0.06 0.08 0.08 94 1009.4
20240527152424 58 282 0.0 0.0 0.06 0.09 0.09 94 1009.4
20240527152340 58 282 0.0 0.0 0.05 0.08 0.08 94 1009.4
20240527152239 58 282 0.0 0.0 0.05 0.08 0.08 94 1009.4
20240527152142 58 282 0.0 0.0 0.05 0.08 0.08 94 1009.4
20240527152043 58 282 0.0 0.0 0.05 0.08 0.08 94 1009.3
20240527151924 58 282 0.0 0.0 0.05 0.08 0.08 94 1009.3
20240527151902 58 282 0.0 0.0 0.05 0.08 0.08 94 1009.3
20240527151853 58 283 0.0 0.0 0.03 0.05 0.05 94 1009.4
20240527151847 58 283 0.0 0.0 0.03 0.05 0.05 94 1009.5
20240527151800 58 283 0.0 0.0 0.04 0.07 0.07 94 1009.4
20240527151657 58 283 0.0 0.0 0.03 0.06 0.06 94 1009.4
20240527151305 58 283 0.0 0.0 0.02 0.05 0.05 94 1009.5
20240527151203 58 283 0.0 0.0 0.02 0.05 0.05 94 1009.5
20240527151105 58 283 0.0 0.0 0.01 0.04 0.04 94 1009.6
20240527150912 58 283 0.0 0.0 0.01 0.04 0.04 94 1009.6
20240527150833 58 283 0.0 0.0 0.01 0.03 0.03 94 1009.6
20240527150823 58 255 0.0 0.0 0.00 0.03 0.03 94 1009.5
20240527150758 58 283 0.0 0.0 0.00 0.03 0.03 94 1009.5
20240527150702 58 255 0.0 0.0 0.00 0.03 0.03 94 1009.4
20240527150359 58 254 0.0 0.0 0.00 0.03 0.03 94 1009.5
20240527150229 58 252 0.0 0.0 0.00 0.03 0.03 94 1009.4
20240527150202 58 305 0.0 0.0 0.00 0.03 0.03 94 1009.5
20240527150102 58 307 0.0 0.0 0.00 0.03 0.03 94 1009.4
20240527145957 58 307 0.0 0.0 0.00 0.03 0.03 94 1009.3
20240527145907 58 307 0.0 0.0 0.00 0.03 0.03 94 1009.4
20240527145859 58 307 0.0 0.0 0.00 0.03 0.03 94 1009.4
20240527145829 58 307 0.0 0.0 0.00 0.03 0.03 94 1009.3
20240527145821 58 307 0.0 0.0 0.00 0.03 0.03 94 1009.4
20240527145753 58 307 0.0 0.0 0.00 0.03 0.03 94 1009.4
20240527145655 58 307 0.0 0.0 0.00 0.03 0.03 94 1009.3
20240527145356 58 307 0.0 0.0 0.00 0.03 0.03 94 1009.3
20240527145254 58 307 0.0 0.0 0.00 0.03 0.03 94 1009.3
20240527145154 58 307 0.0 0.0 0.00 0.03 0.03 94 1009.3
20240527145057 58 307 0.0 0.0 0.00 0.03 0.03 94 1009.3
20240527144955 58 309 0.0 0.0 0.00 0.03 0.03 94 1009.3
20240527144907 58 309 0.0 0.0 0.00 0.03 0.03 94 1009.3
20240527144900 58 309 0.0 0.0 0.00 0.03 0.03 94 1009.3
20240527144833 58 309 0.0 0.0 0.00 0.03 0.03 94 1009.3
20240527144800 58 309 0.0 0.0 0.00 0.03 0.03 94 1009.3
20240527144657 58 309 0.0 0.0 0.00 0.03 0.03 94 1009.2
20240527144351 58 309 0.0 0.0 0.00 0.03 0.03 94 1009.3
20240527144253 58 309 0.0 0.0 0.00 0.03 0.03 94 1009.3
20240527144201 58 309 0.0 0.0 0.00 0.03 0.03 94 1009.3
20240527144058 58 309 0.0 0.0 0.00 0.03 0.03 94 1009.3
20240527143951 58 309 0.0 0.0 0.00 0.03 0.03 94 1009.3
20240527143903 58 309 0.0 0.0 0.00 0.03 0.03 94 1009.3
20240527143857 58 309 0.0 0.0 0.00 0.03 0.03 94 1009.3
20240527143824 58 309 0.0 0.0 0.01 0.03 0.03 94 1009.3
20240527143752 58 309 0.0 0.0 0.00 0.03 0.03 94 1009.3
20240527143651 58 309 0.0 0.0 0.00 0.03 0.03 94 1009.3
20240527143349 58 309 0.0 0.0 0.01 0.03 0.03 94 1009.3
20240527143321 58 309 0.0 0.0 0.01 0.03 0.03 94 1009.2
20240527143248 58 309 0.0 0.0 0.01 0.03 0.03 94 1009.3
20240527143145 58 309 0.0 0.0 0.01 0.03 0.03 94 1009.2
20240527142835 58 309 0.0 0.0 0.01 0.03 0.03 94 1009.2
20240527142738 58 309 0.0 0.0 0.01 0.03 0.03 94 1009.1
20240527142637 57 309 0.0 0.0 0.02 0.03 0.03 94 1009.1
20240527142532 57 309 0.0 0.0 0.02 0.03 0.03 94 1009.1
20240527142405 57 309 0.0 0.0 0.02 0.03 0.03 94 1009.1
20240527142400 57 309 0.0 0.0 0.02 0.03 0.03 94 1009.1
20240527142316 57 309 0.0 0.0 0.02 0.03 0.03 94 1009.1
20240527142304 57 309 0.0 0.0 0.02 0.03 0.03 94 1009.1
20240527142208 57 309 0.0 0.0 0.02 0.03 0.03 94 1009.0
20240527142134 57 309 0.0 0.0 0.02 0.03 0.03 94 1009.0
20240527141853 57 309 0.0 0.0 0.02 0.03 0.03 94 1009.1
20240527141751 57 309 0.0 0.0 0.02 0.03 0.03 94 1009.0
20240527141650 57 309 0.0 0.0 0.02 0.03 0.03 94 1009.1
20240527141548 57 309 0.0 0.0 0.02 0.03 0.03 94 1009.1
20240527141447 57 309 0.0 0.0 0.02 0.03 0.03 94 1009.1
20240527141402 57 309 0.0 0.0 0.02 0.03 0.03 94 1009.1
20240527141345 57 309 0.0 0.0 0.02 0.03 0.03 94 1009.1
20240527141330 57 309 0.0 0.0 0.03 0.03 0.03 94 1009.2
20240527141307 57 309 0.0 0.0 0.02 0.03 0.03 94 1009.2
20240527141237 57 309 0.0 0.0 0.03 0.03 0.03 94 1009.1
20240527141206 57 309 0.0 0.0 0.03 0.03 0.03 94 1009.2
20240527141132 57 309 0.0 0.0 0.03 0.03 0.03 94 1009.1
20240527140835 57 309 0.0 0.0 0.03 0.03 0.03 94 1009.2
20240527140734 57 309 0.0 0.0 0.03 0.03 0.03 94 1009.2
20240527140633 57 309 0.0 0.0 0.03 0.03 0.03 94 1009.2
20240527140535 57 309 0.0 0.0 0.03 0.03 0.03 94 1009.2
20240527140430 57 309 0.0 0.0 0.03 0.03 0.03 94 1009.2
20240527140405 57 312 0.0 0.0 0.03 0.03 0.03 94 1009.1
20240527140343 57 310 0.0 0.0 0.03 0.03 0.03 94 1009.2
20240527140335 57 312 0.0 0.0 0.03 0.03 0.03 94 1009.1
20240527140306 57 313 0.0 0.0 0.03 0.03 0.03 94 1009.1
20240527140237 57 313 0.0 0.0 0.03 0.03 0.03 94 1009.2
20240527140204 57 313 0.0 0.0 0.03 0.03 0.03 94 1009.2
20240527140129 57 310 0.0 0.0 0.03 0.03 0.03 94 1009.2
20240527135824 56 310 0.0 0.0 0.03 0.03 0.03 93 1009.2
20240527135724 56 310 0.0 0.0 0.03 0.03 0.03 93 1009.1
20240527135711 56 312 0.0 0.0 0.03 0.03 0.03 93 1009.0
20240527135646 56 312 0.0 0.0 0.03 0.03 0.03 93 1009.1
20240527135610 56 312 0.0 0.0 0.03 0.03 0.03 93 1009.1
20240527135528 56 312 0.0 0.0 0.03 0.03 0.03 93 1009.1
20240527135500 56 312 0.0 0.0 0.03 0.03 0.03 93 1009.1
20240527135221 56 312 0.0 0.0 0.03 0.03 0.03 93 1009.1
20240527135151 56 312 0.0 0.0 0.03 0.03 0.03 93 1009.1
20240527135119 56 312 0.0 0.0 0.03 0.03 0.03 93 1009.1
20240527135042 56 312 0.0 0.0 0.03 0.03 0.03 93 1009.1
20240527135015 56 312 0.0 0.0 0.03 0.03 0.03 93 1009.1
20240527134945 56 312 0.0 0.0 0.03 0.03 0.03 93 1009.1
20240527134915 56 312 0.0 0.0 0.03 0.03 0.03 93 1009.1
20240527134836 56 312 0.0 0.0 0.03 0.03 0.03 93 1009.0
20240527134759 56 312 0.0 0.0 0.03 0.03 0.03 93 1009.1
20240527134732 56 312 0.0 0.0 0.03 0.03 0.03 93 1009.0
20240527134712 56 312 0.0 0.0 0.03 0.03 0.03 93 1008.8
20240527134644 56 312 0.0 0.0 0.03 0.03 0.03 93 1009.0
20240527134612 56 312 0.0 0.0 0.03 0.03 0.03 93 1009.0
20240527134542 56 312 0.0 0.0 0.03 0.03 0.03 93 1009.0
20240527134308 56 312 0.0 0.0 0.03 0.03 0.03 93 1009.0
20240527134239 56 312 0.0 0.0 0.03 0.03 0.03 93 1009.0
20240527134205 56 312 0.0 0.0 0.03 0.03 0.03 93 1008.8
20240527134137 56 312 0.0 0.0 0.03 0.02 0.02 93 1008.8
20240527134100 56 312 0.0 0.0 0.02 0.02 0.02 93 1009.0
20240527134034 56 312 0.0 0.0 0.02 0.02 0.02 93 1008.8
20240527134005 56 312 0.0 0.0 0.02 0.02 0.02 93 1008.8
20240527133936 56 312 0.0 0.0 0.02 0.02 0.02 93 1008.8
20240527133908 56 312 0.0 0.0 0.02 0.02 0.02 93 1008.8
20240527133834 56 312 0.0 0.0 0.02 0.02 0.02 93 1009.0
20240527133806 56 312 0.0 0.0 0.02 0.01 0.01 93 1009.0
20240527133737 56 312 0.0 0.0 0.02 0.01 0.01 93 1009.0
20240527133705 56 312 0.0 0.0 0.01 0.01 0.01 93 1008.8
20240527133638 56 310 0.0 0.0 0.01 0.01 0.01 93 1008.8
20240527133357 56 310 0.0 0.0 0.01 0.01 0.01 93 1008.8
20240527132229 56 310 0.0 0.0 0.01 0.01 0.01 93 1008.8
20240527132128 56 313 0.0 0.0 0.01 0.01 0.01 93 1008.8
20240527132027 56 313 0.0 0.9 0.01 0.01 0.01 93 1008.8
20240527131924 56 317 0.0 0.9 0.01 0.01 0.01 93 1009.0
20240527131824 56 317 0.0 0.9 0.01 0.01 0.01 93 1008.8
20240527131724 56 336 0.0 0.9 0.01 0.01 0.01 93 1008.8
20240527131605 56 290 0.0 0.9 0.01 0.01 0.01 93 1008.7
20240527131506 56 286 0.0 0.9 0.01 0.01 0.01 93 1008.8
20240527131401 55 289 0.0 0.9 0.01 0.01 0.01 93 1008.8
20240527131338 55 289 0.0 0.9 0.01 0.01 0.01 93 1008.8
20240527131302 55 258 0.0 0.9 0.01 0.00 0.00 93 1008.8
20240527131203 55 252 0.0 0.9 0.00 0.00 0.00 93 1008.8
20240527131101 55 271 0.0 0.0 0.00 0.00 0.00 93 1008.7
20240527131004 55 281 0.0 0.0 0.00 0.00 0.00 93 1008.7
20240527130901 55 281 0.0 0.0 0.00 0.00 0.00 93 1008.7
20240527130840 55 281 0.0 0.0 0.00 0.00 0.00 93 1008.7
20240527130814 55 272 0.0 0.0 0.00 0.00 0.00 93 1008.7
20240527130807 55 283 0.0 0.0 0.00 0.00 0.00 92 1008.7
20240527130736 55 283 0.0 0.0 0.00 0.00 0.00 93 1008.8
20240527130709 55 285 0.0 0.0 0.00 0.00 0.00 93 1008.8
20240527130635 55 283 0.0 0.0 0.00 0.00 0.00 93 1008.7
20240527130603 55 275 0.0 0.0 0.00 0.00 0.00 93 1008.7
20240527130303 55 285 0.0 0.0 0.00 0.00 0.00 93 1008.8
20240527130201 55 286 0.0 0.0 0.00 0.00 0.00 93 1008.7
20240527130100 55 286 0.0 0.0 0.00 0.00 0.00 93 1008.7
20240527130002 55 286 0.0 0.0 0.00 0.00 0.00 93 1008.8
20240527125902 55 286 0.0 0.0 0.00 0.00 0.00 93 1008.7
20240527125838 55 286 0.0 0.0 0.00 0.00 0.00 93 1008.7
20240527125801 55 289 0.0 0.0 0.00 0.00 0.00 93 1008.8
20240527125749 55 302 0.0 0.0 0.00 0.00 0.00 93 1008.8
20240527125725 55 289 0.0 0.0 0.00 0.00 0.00 93 1008.8
20240527125658 55 323 0.0 0.0 0.00 0.00 0.00 93 1008.7
20240527125629 55 300 0.0 0.0 0.00 0.00 0.00 93 1008.7
20240527125554 55 302 0.0 0.0 0.00 0.00 0.00 93 1008.8
20240527125238 55 285 0.0 0.0 0.00 0.00 0.00 93 1008.8
20240527125139 55 305 0.0 0.0 0.00 0.00 0.00 93 1008.7
20240527125038 55 300 0.0 0.0 0.00 0.00 0.00 93 1008.7
20240527124938 55 286 0.0 0.0 0.00 0.00 0.00 93 1008.7
20240527124835 55 281 0.0 0.0 0.00 0.00 0.00 93 1008.7
20240527124811 55 245 0.0 0.0 0.00 0.00 0.00 94 1008.8
20240527124751 55 299 0.0 0.0 0.00 0.00 0.00 93 1008.8
20240527124721 55 292 0.0 0.0 0.00 0.00 0.00 93 1008.8
20240527124650 55 312 0.0 0.0 0.00 0.00 0.00 93 1008.8
20240527124616 55 250 0.0 0.0 0.00 0.00 0.00 94 1008.7
20240527124328 55 247 0.0 0.0 0.00 0.00 0.00 94 1008.8
20240527124228 55 248 0.0 0.0 0.00 0.00 0.00 94 1008.8
20240527124125 55 303 0.0 0.0 0.00 0.00 0.00 94 1008.7
20240527124025 55 264 0.0 0.0 0.00 0.00 0.00 94 1008.8
20240527123922 55 262 0.0 0.0 0.00 0.00 0.00 94 1008.8
20240527123835 55 268 0.0 0.0 0.00 0.00 0.00 94 1008.8
20240527123824 55 268 0.0 0.0 0.00 0.00 0.00 94 1008.7
20240527123805 55 266 0.0 0.9 0.00 0.00 0.00 94 1008.7
20240527123744 55 268 0.0 0.0 0.00 0.00 0.00 94 1008.7
20240527123713 55 268 0.0 0.9 0.00 0.00 0.00 94 1008.7
20240527123644 55 266 0.0 0.9 0.00 0.00 0.00 94 1008.7
20240527123606 55 266 0.0 0.9 0.00 0.00 0.00 94 1008.7
20240527123314 55 266 0.0 0.9 0.00 0.00 0.00 94 1008.7
20240527123211 55 266 0.0 0.9 0.00 0.00 0.00 94 1008.7
20240527123109 55 266 0.0 0.9 0.00 0.00 0.00 94 1008.7
20240527123008 55 268 0.0 0.9 0.00 0.00 0.00 94 1008.7
20240527122907 55 268 0.0 0.9 0.00 0.00 0.00 94 1008.7
20240527122834 55 268 0.0 0.9 0.00 0.00 0.00 94 1008.7
20240527122806 55 268 0.0 0.9 0.00 0.00 0.00 95 1008.7
20240527122705 55 268 0.0 0.0 0.00 0.00 0.00 95 1008.6
20240527122605 55 268 0.0 0.0 0.00 0.00 0.00 95 1008.6
20240527122503 55 268 0.0 0.0 0.00 0.00 0.00 95 1008.7
20240527122403 54 268 0.0 0.0 0.00 0.00 0.00 95 1008.7
20240527122303 54 268 0.0 0.0 0.00 0.00 0.00 95 1008.7
20240527122246 54 268 0.0 0.0 0.00 0.00 0.00 95 1008.6
20240527122226 54 268 0.0 0.0 0.00 0.00 0.00 95 1008.7
20240527122200 54 268 0.0 0.0 0.00 0.00 0.00 95 1008.6
20240527122125 54 268 0.0 0.0 0.00 0.00 0.00 95 1008.6
20240527122051 54 268 0.0 0.0 0.00 0.00 0.00 95 1008.6
20240527121736 54 268 0.0 0.0 0.00 0.00 0.00 95 1008.6
20240527121635 54 268 0.0 0.0 0.00 0.00 0.00 95 1008.7
20240527121535 54 268 0.0 0.0 0.00 0.00 0.00 95 1008.7
20240527121435 54 268 0.0 0.0 0.00 0.00 0.00 95 1008.6
20240527121331 54 268 0.0 0.0 0.00 0.00 0.00 95 1008.6
20240527121303 54 268 0.0 0.0 0.00 0.00 0.00 95 1008.7
20240527121247 54 268 0.0 0.0 0.00 0.00 0.00 95 1008.6
20240527121219 54 268 0.0 0.0 0.00 0.00 0.00 95 1008.7
20240527121149 54 268 0.0 0.0 0.00 0.00 0.00 95 1008.7
20240527121119 54 268 0.0 0.0 0.00 0.00 0.00 95 1008.7
20240527120829 54 268 0.0 0.0 0.00 0.00 0.00 95 1008.7
20240527120727 54 268 0.0 0.0 0.00 0.00 0.00 95 1008.7
20240527120625 54 268 0.0 0.0 0.00 0.00 0.00 95 1008.7
20240527120524 54 268 0.0 0.0 0.00 0.00 0.00 95 1008.6
20240527120424 54 268 0.0 0.0 0.00 0.00 0.00 95 1008.6
20240527120321 54 268 0.0 0.0 0.00 0.00 0.00 95 1008.6
20240527120247 54 268 0.0 0.0 0.00 0.00 0.00 95 1008.5
20240527120232 54 268 0.0 0.0 0.00 0.00 0.00 95 1008.5
20240527120206 54 268 0.0 0.0 0.00 0.00 0.00 95 1008.6
20240527120137 54 268 0.0 0.0 0.00 0.00 0.00 95 1008.5
20240527120102 54 268 0.0 0.0 0.00 0.00 0.00 95 1008.5
20240527115813 54 268 0.0 0.0 0.00 0.00 0.00 95 1008.6
20240527115711 54 268 0.0 0.0 0.00 0.00 0.00 95 1008.6
20240527115610 53 268 0.0 0.0 0.00 0.00 0.00 95 1008.5
20240527115510 53 268 0.0 0.0 0.00 0.00 0.00 95 1008.6
20240527115407 53 268 0.0 0.0 0.00 0.00 0.00 95 1008.5
20240527115329 53 268 0.0 0.0 0.00 0.00 0.00 95 1008.5
20240527115306 53 268 0.0 0.0 0.00 0.00 0.00 95 1008.6
20240527115205 53 268 0.0 0.0 0.00 0.00 0.00 95 1008.5
20240527115105 53 268 0.0 0.0 0.00 0.00 0.00 95 1008.5
20240527114957 53 268 0.0 0.0 0.00 0.00 0.00 95 1008.5
20240527114829 53 268 0.0 0.0 0.00 0.00 0.00 95 1008.5
20240527114755 53 268 0.0 0.0 0.00 0.00 0.00 95 1008.5
20240527114653 53 268 0.0 0.0 0.00 0.00 0.00 95 1008.5
20240527114552 53 268 0.0 0.0 0.00 0.00 0.00 95 1008.5
20240527114450 53 268 0.0 0.0 0.00 0.00 0.00 96 1008.4
20240527114327 53 268 0.0 0.0 0.00 0.00 0.00 96 1008.5
20240527114256 53 288 0.0 0.0 0.00 0.00 0.00 96 1008.5
20240527114249 53 268 0.0 0.0 0.00 0.00 0.00 96 1008.5
20240527114219 53 266 0.0 0.0 0.00 0.00 0.00 96 1008.5
20240527114151 53 266 0.0 0.0 0.00 0.00 0.00 96 1008.4
20240527114118 53 266 0.0 0.0 0.00 0.00 0.00 96 1008.4
20240527114048 53 288 0.0 0.0 0.00 0.00 0.00 96 1008.5
20240527113738 53 288 0.0 0.0 0.00 0.00 0.00 96 1008.5
20240527113637 53 288 0.0 0.0 0.00 0.00 0.00 96 1008.6
20240527113536 52 288 0.0 0.0 0.00 0.00 0.00 96 1008.6
20240527113435 52 288 0.0 0.0 0.00 0.00 0.00 96 1008.6
20240527113326 52 283 0.0 0.0 0.00 0.00 0.00 96 1008.6
20240527113300 51 278 0.0 0.0 0.00 0.00 0.00 96 1008.5
20240527113246 52 282 0.0 0.0 0.00 0.00 0.00 96 1008.6
20240527113216 52 347 0.0 0.0 0.00 0.00 0.00 96 1008.6
20240527113149 52 347 0.0 0.0 0.00 0.00 0.00 96 1008.5
20240527113116 52 350 0.0 0.0 0.00 0.00 0.00 96 1008.5
20240527113042 51 355 0.0 0.0 0.00 0.00 0.00 96 1008.5
20240527112729 51 276 0.0 0.0 0.00 0.00 0.00 96 1008.5
20240527112630 51 276 0.0 0.0 0.00 0.00 0.00 96 1008.6
20240527112531 51 276 0.0 0.0 0.00 0.00 0.00 96 1008.5
20240527112428 51 243 0.0 0.0 0.00 0.00 0.00 96 1008.6
20240527112325 51 227 0.0 0.0 0.00 0.00 0.00 95 1008.5
20240527112258 50 168 0.0 0.0 0.00 0.00 0.00 95 1008.4
20240527112242 51 168 0.0 0.0 0.00 0.00 0.00 95 1008.5
20240527112213 51 168 0.0 0.0 0.00 0.00 0.00 96 1008.5
20240527112144 50 168 0.0 0.0 0.00 0.00 0.00 96 1008.5
20240527112111 50 168 0.0 0.0 0.00 0.00 0.00 96 1008.5
20240527112039 50 168 0.0 0.0 0.00 0.00 0.00 95 1008.4
20240527111723 50 168 0.0 0.0 0.00 0.00 0.00 95 1008.4
20240527111627 50 166 0.0 0.0 0.00 0.00 0.00 95 1008.3
20240527111526 50 166 0.0 0.0 0.00 0.00 0.00 95 1008.3
20240527111427 50 166 0.0 0.0 0.00 0.00 0.00 95 1008.3
20240527111325 50 166 0.0 0.0 0.00 0.00 0.00 95 1008.3
20240527111227 50 166 0.0 0.0 0.00 0.00 0.00 95 1008.3
20240527111125 49 166 0.0 0.0 0.00 0.00 0.00 95 1008.3
20240527111026 49 166 0.0 0.0 0.00 0.00 0.00 95 1008.3
20240527110924 49 166 0.0 0.0 0.00 0.00 0.00 95 1008.2
20240527110827 49 166 0.0 0.0 0.00 0.00 0.00 95 1008.3
20240527110725 49 166 0.0 0.0 0.00 0.00 0.00 95 1008.1
20240527110627 49 166 0.0 0.0 0.00 0.00 0.00 95 1008.2
20240527110526 49 166 0.0 0.0 0.00 0.00 0.00 95 1008.1
20240527110427 49 166 0.0 0.0 0.00 0.00 0.00 95 1008.2
20240527110325 49 166 0.0 0.0 0.00 0.00 0.00 95 1008.2
20240527110225 49 166 0.0 0.0 0.00 0.00 0.00 95 1008.1
20240527110123 49 166 0.0 0.0 0.00 0.00 0.00 95 1008.1
20240527110041 49 166 0.0 0.0 0.00 0.00 0.00 95 1008.1
20240527105924 49 166 0.0 0.0 0.00 0.00 0.00 95 1008.1
20240527105825 49 166 0.0 0.0 0.00 0.00 0.00 95 1008.2
20240527105724 49 166 0.0 0.0 0.00 0.00 0.00 95 1008.1
20240527105626 49 166 0.0 0.0 0.00 0.00 0.00 95 1008.1
20240527105526 49 166 0.0 0.0 0.00 0.00 0.00 95 1008.2
20240527105429 49 166 0.0 0.0 0.00 0.00 0.00 95 1008.1
20240527105325 49 166 0.0 0.0 0.00 0.00 0.00 95 1008.1
20240527105225 49 166 0.0 0.0 0.00 0.00 0.00 95 1008.1
20240527105124 49 166 0.0 0.0 0.00 0.00 0.00 95 1008.1
20240527105028 49 166 0.0 0.0 0.00 0.00 0.00 95 1008.1
20240527104925 49 166 0.0 0.0 0.00 0.00 0.00 95 1008.1
20240527104826 49 166 0.0 0.0 0.00 0.00 0.00 95 1008.2
20240527104726 48 166 0.0 0.0 0.00 0.00 0.00 95 1008.2
20240527104626 48 166 0.0 0.0 0.00 0.00 0.00 95 1008.2
20240527104526 48 166 0.0 0.0 0.00 0.00 0.00 95 1008.1
20240527104426 48 166 0.0 0.0 0.00 0.00 0.00 95 1008.1
20240527104324 48 166 0.0 0.0 0.00 0.00 0.00 95 1008.1
20240527104227 48 166 0.0 0.0 0.00 0.00 0.00 94 1008.0
20240527104124 48 166 0.0 0.0 0.00 0.00 0.00 94 1008.1
20240527104027 48 166 0.0 0.0 0.00 0.00 0.00 94 1008.1
20240527103923 48 166 0.0 0.0 0.00 0.00 0.00 94 1008.1
20240527103826 48 166 0.0 0.0 0.00 0.00 0.00 94 1008.1
20240527103725 48 166 0.0 0.0 0.00 0.00 0.00 94 1008.1
20240527103626 48 166 0.0 0.0 0.00 0.00 0.00 94 1008.1
20240527103526 48 166 0.0 0.0 0.00 0.00 0.00 94 1008.1
20240527103428 48 166 0.0 0.0 0.00 0.00 0.00 94 1008.0
20240527103324 48 166 0.0 0.0 0.00 0.00 0.00 94 1008.1
20240527103226 48 166 0.0 0.0 0.00 0.00 0.00 94 1008.1
20240527103125 48 166 0.0 0.0 0.00 0.00 0.00 94 1008.1
20240527103028 48 166 0.0 0.0 0.00 0.00 0.00 94 1008.0
20240527102925 48 166 0.0 0.0 0.00 0.00 0.00 94 1008.1
20240527102826 48 166 0.0 0.0 0.00 0.00 0.00 94 1008.0
20240527102747 48 166 0.0 0.0 0.00 0.00 0.00 94 1008.1
20240527102734 48 166 0.0 0.0 0.00 0.00 0.00 94 1008.0
20240527102706 48 166 0.0 0.0 0.00 0.00 0.00 94 1008.1
20240527102637 48 166 0.0 0.0 0.00 0.00 0.00 94 1008.1
20240527102606 48 166 0.0 0.0 0.00 0.00 0.00 94 1008.1
20240527102320 48 166 0.0 0.0 0.00 0.00 0.00 94 1008.1
20240527102247 48 166 0.0 0.0 0.00 0.00 0.00 94 1008.0
20240527102230 48 166 0.0 0.0 0.00 0.00 0.00 94 1008.1
20240527102200 48 166 0.0 0.0 0.00 0.00 0.00 94 1008.0
20240527102131 48 166 0.0 0.0 0.00 0.00 0.00 94 1008.0
20240527102101 48 166 0.0 0.0 0.00 0.00 0.00 94 1008.0
20240527101812 48 166 0.0 0.0 0.00 0.00 0.00 94 1008.0
20240527101710 48 166 0.0 0.0 0.00 0.00 0.00 94 1008.0
20240527101610 48 166 0.0 0.0 0.00 0.00 0.00 94 1008.0
20240527101507 48 166 0.0 0.0 0.00 0.00 0.00 94 1008.0
20240527101407 48 166 0.0 0.0 0.00 0.00 0.00 94 1007.9
20240527101322 48 166 0.0 0.0 0.00 0.00 0.00 94 1007.9
20240527101304 48 166 0.0 0.0 0.00 0.00 0.00 94 1008.0
20240527101206 48 166 0.0 0.0 0.00 0.00 0.00 94 1008.0
20240527101153 48 166 0.0 0.0 0.00 0.00 0.00 94 1008.0
20240527101138 48 166 0.0 0.0 0.00 0.00 0.00 94 1007.9
20240527101113 48 166 0.0 0.0 0.00 0.00 0.00 94 1007.9
20240527101054 48 166 0.0 0.0 0.00 0.00 0.00 94 1008.0
20240527100804 48 166 0.0 0.0 0.00 0.00 0.00 94 1007.9
20240527100646 48 166 0.0 0.0 0.00 0.00 0.00 94 1007.9
20240527100544 48 166 0.0 0.0 0.00 0.00 0.00 94 1007.9
20240527100445 48 166 0.0 0.0 0.00 0.00 0.00 94 1007.9
20240527100322 48 166 0.0 0.0 0.00 0.00 0.00 94 1008.0
20240527100255 48 166 0.0 0.0 0.00 0.00 0.00 94 1007.8
20240527100245 48 166 0.0 0.0 0.00 0.00 0.00 94 1007.9
20240527100216 48 166 0.0 0.0 0.00 0.00 0.00 94 1007.9
20240527100149 48 166 0.0 0.0 0.00 0.00 0.00 94 1007.9
20240527100115 48 166 0.0 0.0 0.00 0.00 0.00 94 1007.9
20240527100045 48 166 0.0 0.0 0.00 0.00 0.00 94 1007.8
20240527095731 48 166 0.0 0.0 0.00 0.00 0.00 94 1007.9
20240527095631 48 166 0.0 0.0 0.00 0.00 0.00 94 1007.9
20240527095531 48 166 0.0 0.0 0.00 0.00 0.00 94 1007.9
20240527095432 48 166 0.0 0.0 0.00 0.00 0.00 94 1007.9
20240527095323 48 166 0.0 0.0 0.00 0.00 0.00 94 1007.8
20240527095233 48 166 0.0 0.0 0.00 0.00 0.00 94 1007.9
20240527095225 49 166 0.0 0.0 0.00 0.00 0.00 94 1007.9
20240527095205 48 166 0.0 0.0 0.00 0.00 0.00 94 1007.9
20240527095140 48 166 0.0 0.0 0.00 0.00 0.00 94 1007.9
20240527095108 49 166 0.0 0.0 0.00 0.00 0.00 94 1007.9
20240527095037 49 166 0.0 0.0 0.00 0.00 0.00 94 1007.9
20240527094724 49 166 0.0 0.0 0.00 0.00 0.00 94 1007.9
20240527094625 49 166 0.0 0.0 0.00 0.00 0.00 94 1007.9
20240527094526 49 166 0.0 0.0 0.00 0.00 0.00 94 1007.9
20240527094426 49 166 0.0 0.0 0.00 0.00 0.00 94 1007.9
20240527094324 49 166 0.0 0.0 0.00 0.00 0.00 94 1007.9
20240527094226 49 166 0.0 0.0 0.00 0.00 0.00 94 1007.9
20240527094124 49 166 0.0 0.0 0.00 0.00 0.00 94 1007.9
20240527094026 49 166 0.0 0.0 0.00 0.00 0.00 94 1007.8
20240527093924 49 166 0.0 0.0 0.00 0.00 0.00 94 1007.9
20240527093826 49 166 0.0 0.0 0.00 0.00 0.00 94 1007.9
20240527093725 49 166 0.0 0.0 0.00 0.00 0.00 94 1007.8
20240527093625 49 166 0.0 0.0 0.00 0.00 0.00 94 1007.9
20240527093526 49 166 0.0 0.0 0.00 0.00 0.00 94 1007.9
20240527093426 49 166 0.0 0.0 0.00 0.00 0.00 94 1007.9
20240527093324 49 166 0.0 0.0 0.00 0.00 0.00 94 1007.9
20240527093228 49 166 0.0 0.0 0.00 0.00 0.00 94 1007.9
20240527093124 49 166 0.0 0.0 0.00 0.00 0.00 94 1007.9
20240527093027 49 166 0.0 0.0 0.00 0.00 0.00 94 1007.9
20240527092923 49 166 0.0 0.0 0.00 0.00 0.00 94 1007.9
20240527092827 49 166 0.0 0.0 0.00 0.00 0.00 94 1008.0
20240527092724 49 166 0.0 0.0 0.00 0.00 0.00 94 1008.0
20240527092627 49 166 0.0 0.0 0.00 0.00 0.00 94 1008.0
20240527092527 49 166 0.0 0.0 0.00 0.00 0.00 94 1008.0
20240527092429 49 166 0.0 0.0 0.00 0.00 0.00 94 1008.0
20240527092324 49 166 0.0 0.0 0.00 0.00 0.00 94 1007.9
20240527092225 49 166 0.0 0.0 0.00 0.00 0.00 94 1008.0
20240527092124 49 166 0.0 0.0 0.00 0.00 0.00 94 1008.0
20240527092029 49 166 0.0 0.0 0.00 0.00 0.00 94 1007.9
20240527091923 49 166 0.0 0.0 0.00 0.00 0.00 94 1007.9
20240527091826 49 166 0.0 0.0 0.00 0.00 0.00 94 1007.9
20240527091724 49 166 0.0 0.0 0.00 0.00 0.00 94 1007.9
20240527091626 49 166 0.0 0.0 0.00 0.00 0.00 94 1007.8
20240527091526 49 166 0.0 0.0 0.00 0.00 0.00 94 1007.8
20240527091427 49 166 0.0 0.0 0.00 0.00 0.00 94 1007.8
20240527091325 49 166 0.0 0.0 0.00 0.00 0.00 94 1007.7
20240527091225 49 166 0.0 0.0 0.00 0.00 0.00 94 1007.8
20240527091125 49 166 0.0 0.0 0.00 0.00 0.00 94 1007.8
20240527091028 49 166 0.0 0.0 0.00 0.00 0.00 94 1007.8
20240527090924 49 166 0.0 0.0 0.00 0.00 0.00 94 1007.8
20240527090825 49 166 0.0 0.0 0.00 0.00 0.00 94 1007.8
20240527090754 49 166 0.0 0.0 0.00 0.00 0.00 94 1007.7
20240527090735 49 166 0.0 0.0 0.00 0.00 0.00 94 1007.8
20240527090708 49 166 0.0 0.0 0.00 0.00 0.00 94 1007.8
20240527090643 49 166 0.0 0.0 0.00 0.00 0.00 94 1007.7
20240527090611 49 166 0.0 0.0 0.00 0.00 0.00 94 1007.8
20240527090536 49 166 0.0 0.0 0.00 0.00 0.00 94 1007.7
20240527090226 49 166 0.0 0.0 0.00 0.00 0.00 94 1007.8
20240527090125 49 166 0.0 0.0 0.00 0.00 0.00 94 1007.8
20240527090029 49 166 0.0 0.0 0.00 0.00 0.00 94 1007.8
20240527085924 49 166 0.0 0.0 0.00 0.00 0.00 94 1007.9
20240527085826 49 166 0.0 0.0 0.00 0.00 0.00 94 1007.8
20240527085728 50 166 0.0 0.0 0.00 0.00 0.00 94 1007.9
20240527085627 50 166 0.0 0.0 0.00 0.00 0.00 94 1007.8
20240527085526 50 166 0.0 0.0 0.00 0.00 0.00 94 1007.8
20240527085428 50 166 0.0 0.0 0.00 0.00 0.00 94 1007.8
20240527085325 50 166 0.0 0.0 0.00 0.00 0.00 94 1007.8
20240527085226 50 166 0.0 0.0 0.00 0.00 0.00 94 1007.7
20240527085125 50 166 0.0 0.0 0.00 0.00 0.00 94 1007.8
20240527085027 50 166 0.0 0.0 0.00 0.00 0.00 94 1007.8
20240527084923 50 166 0.0 0.0 0.00 0.00 0.00 94 1007.8
20240527084826 50 166 0.0 0.0 0.00 0.00 0.00 94 1007.8
20240527084812 50 166 0.0 0.0 0.00 0.00 0.00 94 1007.9
20240527084726 50 166 0.0 0.0 0.00 0.00 0.00 94 1007.9
20240527084627 50 166 0.0 0.0 0.00 0.00 0.00 94 1007.9
20240527084526 50 166 0.0 0.0 0.00 0.00 0.00 94 1007.9
20240527084428 50 166 0.0 0.0 0.00 0.00 0.00 94 1007.8
20240527084308 50 166 0.0 0.0 0.00 0.00 0.00 94 1007.9
20240527084225 50 166 0.0 0.0 0.00 0.00 0.00 94 1007.9
20240527084124 50 166 0.0 0.0 0.00 0.00 0.00 94 1007.9
20240527084027 50 166 0.0 0.0 0.00 0.00 0.00 94 1007.9
20240527083924 50 166 0.0 0.0 0.00 0.00 0.00 94 1007.9
20240527083808 50 166 0.0 0.0 0.00 0.00 0.00 94 1007.9
20240527083726 50 166 0.0 0.0 0.00 0.00 0.00 94 1007.8
20240527083625 50 166 0.0 0.0 0.00 0.00 0.00 94 1007.8
20240527083525 50 166 0.0 0.0 0.00 0.00 0.00 94 1007.9
20240527083428 50 166 0.0 0.0 0.00 0.00 0.00 94 1007.9
20240527083324 50 166 0.0 0.0 0.00 0.00 0.00 94 1007.8
20240527083307 50 166 0.0 0.0 0.00 0.00 0.00 94 1007.9
20240527083228 50 166 0.0 0.0 0.00 0.00 0.00 94 1007.9
20240527083125 50 166 0.0 0.0 0.00 0.00 0.00 94 1007.9
20240527083027 50 166 0.0 0.0 0.00 0.00 0.00 94 1007.9
20240527082924 50 166 0.0 0.0 0.00 0.00 0.00 94 1007.9
20240527082826 50 166 0.0 0.0 0.00 0.00 0.00 94 1007.9
20240527082801 50 166 0.0 0.0 0.00 0.00 0.00 94 1007.8
20240527082724 50 166 0.0 0.0 0.00 0.00 0.00 94 1007.8
20240527082625 50 166 0.0 0.0 0.00 0.00 0.00 94 1007.9
20240527082526 50 166 0.0 0.0 0.00 0.00 0.00 93 1007.9
20240527082427 50 166 0.0 0.0 0.00 0.00 0.00 93 1007.8
20240527082325 50 166 0.0 0.0 0.00 0.00 0.00 93 1007.8
20240527082302 50 166 0.0 0.0 0.00 0.00 0.00 93 1007.9
20240527082227 50 166 0.0 0.0 0.00 0.00 0.00 93 1007.9
20240527082138 50 166 0.0 0.0 0.00 0.00 0.00 93 1007.8
20240527082130 50 166 0.0 0.0 0.00 0.00 0.00 93 1007.9
20240527082105 50 166 0.0 0.0 0.00 0.00 0.00 93 1007.8
20240527082033 50 166 0.0 0.0 0.00 0.00 0.00 93 1007.9
20240527082006 50 166 0.0 0.0 0.00 0.00 0.00 93 1007.8
20240527081724 50 166 0.0 0.0 0.00 0.00 0.00 93 1007.8
20240527081626 50 166 0.0 0.0 0.00 0.00 0.00 93 1007.8
20240527081559 50 166 0.0 0.0 0.00 0.00 0.00 93 1007.7
20240527081455 50 166 0.0 0.0 0.00 0.00 0.00 94 1007.8
20240527081351 50 166 0.0 0.0 0.00 0.00 0.00 94 1007.8
20240527081231 50 166 0.0 0.0 0.00 0.00 0.00 94 1007.8
20240527081203 50 166 0.0 0.0 0.00 0.00 0.00 94 1007.7
20240527081136 50 166 0.0 0.0 0.00 0.00 0.00 93 1007.7
20240527081104 50 166 0.0 0.0 0.00 0.00 0.00 94 1007.7
20240527081007 50 166 0.0 0.0 0.00 0.00 0.00 94 1007.7
20240527080656 50 166 0.0 0.0 0.00 0.00 0.00 93 1007.6
20240527080557 51 166 0.0 0.0 0.00 0.00 0.00 93 1007.6
20240527080456 51 166 0.0 0.0 0.00 0.00 0.00 93 1007.6
20240527080353 51 166 0.0 0.0 0.00 0.00 0.00 93 1007.6
20240527080229 51 166 0.0 0.0 0.00 0.00 0.00 93 1007.5
20240527080200 51 166 0.0 0.0 0.00 0.00 0.00 93 1007.5
20240527080144 51 166 0.0 0.0 0.00 0.00 0.00 94 1007.5
20240527080105 51 166 0.0 0.0 0.00 0.00 0.00 93 1007.5
20240527080008 51 166 0.0 0.0 0.00 0.00 0.00 93 1007.5
20240527075657 51 166 0.0 0.0 0.00 0.00 0.00 94 1007.5
20240527075557 51 166 0.0 0.0 0.00 0.00 0.00 94 1007.5
20240527075503 51 166 0.0 0.0 0.00 0.00 0.00 94 1007.5
20240527075355 51 166 0.0 0.0 0.00 0.00 0.00 94 1007.6
20240527075229 51 166 0.0 0.0 0.00 0.00 0.00 94 1007.6
20240527075155 51 166 0.0 0.0 0.00 0.00 0.00 94 1007.5
20240527075057 51 166 0.0 0.0 0.00 0.00 0.00 94 1007.5
20240527074953 51 166 0.0 0.0 0.00 0.00 0.00 94 1007.5
20240527074854 51 166 0.0 0.0 0.00 0.00 0.00 94 1007.5
20240527074729 51 166 0.0 0.0 0.00 0.00 0.00 94 1007.5
20240527074656 51 166 0.0 0.0 0.00 0.00 0.00 94 1007.5
20240527074557 51 166 0.0 0.0 0.00 0.00 0.00 94 1007.4
20240527074458 51 166 0.0 0.0 0.00 0.00 0.00 94 1007.4
20240527074357 51 166 0.0 0.0 0.00 0.00 0.00 94 1007.5
20240527074229 51 166 0.0 0.0 0.00 0.00 0.00 94 1007.5
20240527074203 51 166 0.0 0.0 0.00 0.00 0.00 94 1007.6
20240527074146 51 166 0.0 0.0 0.00 0.00 0.00 93 1007.6
20240527074104 51 166 0.0 0.0 0.00 0.00 0.00 94 1007.5
20240527074009 51 166 0.0 0.0 0.00 0.00 0.00 93 1007.6
20240527073654 51 123 0.0 0.0 0.00 0.00 0.00 93 1007.7
20240527073556 51 123 0.0 0.0 0.00 0.00 0.00 93 1007.7
20240527073456 51 123 0.0 0.0 0.00 0.00 0.00 93 1007.7
20240527073355 51 123 0.0 0.0 0.00 0.00 0.00 93 1007.7
20240527073228 51 123 0.0 0.0 0.00 0.00 0.00 94 1007.7
20240527073200 51 123 0.0 0.0 0.00 0.00 0.00 94 1007.6
20240527073119 51 123 0.0 0.0 0.00 0.00 0.00 94 1007.7
20240527073113 51 123 0.0 0.0 0.00 0.00 0.00 94 1007.6
20240527073049 51 123 0.0 0.0 0.00 0.00 0.00 94 1007.7
20240527073000 51 123 0.0 0.0 0.00 0.00 0.00 94 1007.7
20240527072702 51 123 0.0 0.0 0.00 0.00 0.00 94 1007.7
20240527072556 51 123 0.0 0.0 0.00 0.00 0.00 94 1007.6
20240527072451 51 123 0.0 0.0 0.00 0.00 0.00 94 1007.6
20240527072352 51 123 0.0 0.0 0.00 0.00 0.00 94 1007.7
20240527072254 51 123 0.0 0.0 0.00 0.00 0.00 93 1007.6
20240527072228 51 123 0.0 0.0 0.00 0.00 0.00 94 1007.6
20240527072207 51 123 0.0 0.0 0.00 0.00 0.00 93 1007.7
20240527072145 51 123 0.0 0.0 0.00 0.00 0.00 93 1007.7
20240527072103 51 123 0.0 0.0 0.00 0.00 0.00 93 1007.7
20240527072005 51 123 0.0 0.0 0.00 0.00 0.00 93 1007.7
20240527071653 51 123 0.0 0.0 0.00 0.00 0.00 93 1007.7
20240527071552 51 123 0.0 0.0 0.00 0.00 0.00 93 1007.7
20240527071451 51 123 0.0 0.0 0.00 0.00 0.00 93 1007.8
20240527071353 51 123 0.0 0.0 0.00 0.00 0.00 93 1007.7
20240527071225 51 123 0.0 0.0 0.00 0.00 0.00 93 1007.7
20240527071203 51 123 0.0 0.0 0.00 0.00 0.00 93 1007.7
20240527071145 51 123 0.0 0.0 0.00 0.00 0.00 93 1007.7
20240527071101 51 123 0.0 0.0 0.00 0.00 0.00 93 1007.7
20240527071005 51 123 0.0 0.0 0.00 0.00 0.00 93 1007.8
20240527070652 51 123 0.0 0.0 0.00 0.00 0.00 93 1007.8
20240527070552 51 123 0.0 0.0 0.00 0.00 0.00 93 1007.7
20240527070448 51 123 0.0 0.0 0.00 0.00 0.00 93 1007.8
20240527070349 51 123 0.0 0.0 0.00 0.00 0.00 93 1007.8
20240527070227 51 123 0.0 0.0 0.00 0.00 0.00 93 1007.8
20240527070201 51 123 0.0 0.0 0.00 0.00 0.00 93 1007.7
20240527070153 51 123 0.0 0.0 0.00 0.00 0.00 93 1007.7
20240527070146 51 123 0.0 0.0 0.00 0.00 0.00 93 1007.8
20240527070057 51 123 0.0 0.0 0.00 0.00 0.00 93 1007.7
20240527070000 51 123 0.0 0.0 0.00 0.00 0.00 93 1007.7
20240527065637 51 123 0.0 0.0 0.00 0.00 0.00 93 1007.7
20240527065503 51 123 0.0 0.0 0.00 0.00 0.00 93 1007.7
20240527065403 51 123 0.0 0.0 0.00 0.00 0.00 93 1007.7
20240527065303 51 123 0.0 0.0 0.00 0.00 0.00 93 1007.8
20240527065225 51 123 0.0 0.0 0.00 0.00 0.00 93 1007.8
20240527065204 51 123 0.0 0.0 0.00 0.00 0.00 93 1007.7
20240527065139 51 123 0.0 0.0 0.00 0.00 0.00 93 1007.7
20240527065114 51 123 0.0 0.0 0.00 0.00 0.00 93 1007.7
20240527065041 51 123 0.0 0.0 0.00 0.00 0.00 93 1007.7
20240527065014 51 123 0.0 0.0 0.00 0.00 0.00 93 1007.7
20240527064945 51 123 0.0 0.0 0.00 0.00 0.00 93 1007.7
20240527064640 51 123 0.0 0.0 0.00 0.00 0.00 93 1007.8
20240527064530 51 123 0.0 0.0 0.00 0.00 0.00 93 1007.7
20240527064430 51 123 0.0 0.0 0.00 0.00 0.00 93 1007.7
20240527064330 51 123 0.0 0.0 0.00 0.00 0.00 93 1007.7
20240527064225 51 123 0.0 0.0 0.00 0.00 0.00 93 1007.7
20240527064153 51 123 0.0 0.0 0.00 0.00 0.00 93 1007.6
20240527064140 51 123 0.0 0.0 0.00 0.00 0.00 93 1007.6
20240527064108 51 123 0.0 0.0 0.00 0.00 0.00 93 1007.6
20240527064038 51 123 0.0 0.0 0.00 0.00 0.00 93 1007.7
20240527064011 51 123 0.0 0.0 0.00 0.00 0.00 93 1007.7
20240527063941 51 123 0.0 0.0 0.00 0.00 0.00 93 1007.7
20240527063626 51 123 0.0 0.0 0.00 0.00 0.00 93 1007.6
20240527063525 51 123 0.0 0.0 0.00 0.00 0.00 93 1007.6
20240527063423 51 123 0.0 0.0 0.00 0.00 0.00 93 1007.5
20240527063321 51 123 0.0 0.0 0.00 0.00 0.00 93 1007.5
20240527063211 51 123 0.0 0.0 0.00 0.00 0.00 93 1007.5
20240527063111 51 123 0.0 0.0 0.00 0.00 0.00 92 1007.5
20240527063010 51 123 0.0 0.0 0.00 0.00 0.00 92 1007.5
20240527062909 51 123 0.0 0.0 0.00 0.00 0.00 92 1007.6
20240527062808 51 123 0.0 0.0 0.00 0.00 0.00 92 1007.6
20240527062707 51 123 0.0 0.0 0.00 0.00 0.00 92 1007.5
20240527062604 51 123 0.0 0.0 0.00 0.00 0.00 92 1007.5
20240527062510 51 123 0.0 0.0 0.00 0.00 0.00 92 1007.5
20240527062403 51 123 0.0 0.0 0.00 0.00 0.00 92 1007.5
20240527062305 51 123 0.0 0.0 0.00 0.00 0.00 92 1007.5
20240527062205 51 123 0.0 0.0 0.00 0.00 0.00 92 1007.5
20240527062140 51 123 0.0 0.0 0.00 0.00 0.00 92 1007.5
20240527062122 51 123 0.0 0.0 0.00 0.00 0.00 92 1007.5
20240527062051 51 123 0.0 0.0 0.00 0.00 0.00 92 1007.5
20240527062021 51 123 0.0 0.0 0.00 0.00 0.00 92 1007.5
20240527061950 51 123 0.0 0.0 0.00 0.00 0.00 92 1007.5
20240527061701 51 123 0.0 0.0 0.00 0.00 0.00 92 1007.5
20240527061600 51 123 0.0 0.0 0.00 0.00 0.00 92 1007.5
20240527061458 51 123 0.0 0.0 0.00 0.00 0.00 92 1007.6
20240527061356 51 123 0.0 0.0 0.00 0.00 0.00 92 1007.6
20240527061254 51 123 0.0 0.0 0.00 0.00 0.00 92 1007.5
20240527061212 51 123 0.0 0.0 0.00 0.00 0.00 92 1007.6
20240527061155 51 123 0.0 0.0 0.00 0.00 0.00 92 1007.6
20240527061144 51 123 0.0 0.0 0.00 0.00 0.00 92 1007.5
20240527061121 51 123 0.0 0.0 0.00 0.00 0.00 92 1007.5
20240527061042 51 123 0.0 0.0 0.00 0.00 0.00 92 1007.6
20240527061014 51 123 0.0 0.0 0.00 0.00 0.00 92 1007.5
20240527060944 51 123 0.0 0.0 0.00 0.00 0.00 92 1007.6
20240527060642 51 123 0.0 0.0 0.00 0.00 0.00 92 1007.5
20240527060545 51 123 0.0 0.0 0.00 0.00 0.00 92 1007.6
20240527060440 51 123 0.0 0.0 0.00 0.00 0.00 92 1007.5
20240527060340 51 123 0.0 0.0 0.00 0.00 0.00 92 1007.6
20240527060235 51 123 0.0 0.0 0.00 0.00 0.00 92 1007.6
20240527060211 51 123 0.0 0.0 0.00 0.00 0.00 92 1007.5
20240527060151 51 123 0.0 0.0 0.00 0.00 0.00 92 1007.5
20240527060142 51 123 0.0 0.0 0.00 0.00 0.00 92 1007.5
20240527060112 51 123 0.0 0.0 0.00 0.00 0.00 92 1007.6
20240527060029 51 123 0.0 0.0 0.00 0.00 0.00 92 1007.6
20240527060001 51 123 0.0 0.0 0.00 0.00 0.00 92 1007.5
20240527055934 51 123 0.0 0.0 0.00 0.00 0.00 92 1007.6
20240527055631 51 123 0.0 0.0 0.00 0.00 0.00 92 1007.5
20240527055534 51 123 0.0 0.0 0.00 0.00 0.00 92 1007.5
20240527055432 51 123 0.0 0.0 0.00 0.00 0.00 91 1007.6
20240527055330 51 123 0.0 0.0 0.00 0.00 0.00 91 1007.6
20240527055206 51 123 0.0 0.0 0.00 0.00 0.00 91 1007.6
20240527055124 51 123 0.0 0.0 0.00 0.00 0.00 91 1007.6
20240527055023 51 123 0.0 0.0 0.00 0.00 0.00 91 1007.6
20240527054922 51 123 0.0 0.0 0.00 0.00 0.00 91 1007.5
20240527054822 51 123 0.0 0.0 0.00 0.00 0.00 91 1007.5
20240527054706 51 123 0.0 0.0 0.00 0.00 0.00 91 1007.5
20240527054616 51 123 0.0 0.0 0.00 0.00 0.00 91 1007.6
20240527054515 51 123 0.0 0.0 0.00 0.00 0.00 91 1007.6
20240527054412 51 123 0.0 0.0 0.00 0.00 0.00 91 1007.5
20240527054311 51 123 0.0 0.0 0.00 0.00 0.00 91 1007.6
20240527054204 51 123 0.0 0.0 0.00 0.00 0.00 91 1007.5
20240527054113 51 123 0.0 0.0 0.00 0.00 0.00 91 1007.5
20240527054009 51 123 0.0 0.0 0.00 0.00 0.00 91 1007.5
20240527053906 51 123 0.0 0.0 0.00 0.00 0.00 91 1007.5
20240527053804 51 123 0.0 0.0 0.00 0.00 0.00 91 1007.5
20240527053704 51 123 0.0 0.0 0.00 0.00 0.00 91 1007.5
20240527053606 51 123 0.0 0.0 0.00 0.00 0.00 91 1007.5
20240527053543 51 123 0.0 0.0 0.00 0.00 0.00 91 1007.6
20240527053525 51 123 0.0 0.0 0.00 0.00 0.00 91 1007.5
20240527053458 51 123 0.0 0.0 0.00 0.00 0.00 91 1007.5
20240527053427 51 123 0.0 0.0 0.00 0.00 0.00 91 1007.5
20240527053403 51 123 0.0 0.0 0.00 0.00 0.00 91 1007.6
20240527053058 52 123 0.0 0.0 0.00 0.00 0.00 91 1007.6
20240527052959 52 123 0.0 0.0 0.00 0.00 0.00 91 1007.6
20240527052857 52 123 0.0 0.0 0.00 0.00 0.00 91 1007.6
20240527052754 52 123 0.0 0.0 0.00 0.00 0.00 91 1007.6
20240527052635 52 123 0.0 0.0 0.00 0.00 0.00 91 1007.6
20240527052613 52 123 0.0 0.0 0.00 0.00 0.00 91 1007.7
20240527052558 52 123 0.0 0.0 0.00 0.00 0.00 91 1007.6
20240527052522 52 123 0.0 0.0 0.00 0.00 0.00 91 1007.6
20240527052453 52 123 0.0 0.0 0.00 0.00 0.00 91 1007.6
20240527052424 52 123 0.0 0.0 0.00 0.00 0.00 91 1007.6
20240527052353 52 123 0.0 0.0 0.00 0.00 0.00 91 1007.7
20240527052042 52 123 0.0 0.0 0.00 0.00 0.00 91 1007.7
20240527051939 52 123 0.0 0.0 0.00 0.00 0.00 91 1007.7
20240527051838 52 123 0.0 0.0 0.00 0.00 0.00 91 1007.7
20240527051738 52 123 0.0 0.0 0.00 0.00 0.00 91 1007.8
20240527051635 52 123 0.0 0.0 0.00 0.00 0.00 91 1007.6
20240527051559 52 123 0.0 0.0 0.00 0.00 0.00 90 1007.6
20240527051544 52 123 0.0 0.0 0.00 0.00 0.00 91 1007.6
20240527051511 52 123 0.0 0.0 0.00 0.00 0.00 91 1007.7
20240527051443 52 123 0.0 0.0 0.00 0.00 0.00 91 1007.7
20240527051413 52 123 0.0 0.0 0.00 0.00 0.00 90 1007.6
20240527051132 52 123 0.0 0.0 0.00 0.00 0.00 90 1007.6
20240527051031 52 123 0.0 0.0 0.00 0.00 0.00 90 1007.7
20240527050932 52 123 0.0 0.0 0.00 0.00 0.00 90 1007.6
20240527050830 52 123 0.0 0.0 0.00 0.00 0.00 90 1007.6
20240527050731 52 123 0.0 0.0 0.00 0.00 0.00 90 1007.6
20240527050624 52 123 0.0 0.0 0.00 0.00 0.00 90 1007.6
20240527050521 52 123 0.0 0.0 0.00 0.00 0.00 90 1007.6
20240527050420 52 123 0.0 0.0 0.00 0.00 0.00 90 1007.6
20240527050316 52 123 0.0 0.0 0.00 0.00 0.00 90 1007.6
20240527050216 52 123 0.0 0.0 0.00 0.00 0.00 90 1007.6
20240527050130 52 123 0.0 0.0 0.00 0.00 0.00 90 1007.6
20240527050113 52 123 0.0 0.0 0.00 0.00 0.00 90 1007.7
20240527050053 53 123 0.0 0.0 0.00 0.00 0.00 90 1007.6
20240527050033 53 123 0.0 0.0 0.00 0.00 0.00 90 1007.6
20240527045954 53 123 0.0 0.0 0.00 0.00 0.00 90 1007.6
20240527045926 53 123 0.0 0.0 0.00 0.00 0.00 90 1007.6
20240527045859 53 123 0.0 0.0 0.00 0.00 0.00 90 1007.6
20240527045604 53 123 0.0 0.0 0.00 0.00 0.00 90 1007.6
20240527045506 53 123 0.0 0.0 0.00 0.00 0.00 90 1007.7
20240527045405 53 123 0.0 0.0 0.00 0.00 0.00 90 1007.6
20240527045306 53 123 0.0 0.0 0.00 0.00 0.00 90 1007.6
20240527045204 53 123 0.0 0.0 0.00 0.00 0.00 90 1007.6
20240527045104 53 123 0.0 0.0 0.00 0.00 0.00 90 1007.6
20240527045053 53 123 0.0 0.0 0.00 0.00 0.00 89 1007.6
20240527045028 53 123 0.0 0.0 0.00 0.00 0.00 90 1007.6
20240527044954 53 123 0.0 0.0 0.00 0.00 0.00 90 1007.6
20240527044927 53 123 0.0 0.0 0.00 0.00 0.00 89 1007.6
20240527044858 53 123 0.0 0.0 0.00 0.00 0.00 89 1007.6
20240527044603 53 123 0.0 0.0 0.00 0.00 0.00 89 1007.6
20240527044504 53 123 0.0 0.0 0.00 0.00 0.00 89 1007.6
20240527044404 53 123 0.0 0.0 0.00 0.00 0.00 89 1007.6
20240527044304 53 123 0.0 0.0 0.00 0.00 0.00 89 1007.7
20240527044202 53 123 0.0 0.0 0.00 0.00 0.00 89 1007.6
20240527044130 53 123 0.0 0.0 0.00 0.00 0.00 89 1007.6
20240527044100 53 123 0.0 0.0 0.00 0.00 0.00 89 1007.6
20240527044052 53 123 0.0 0.0 0.00 0.00 0.00 89 1007.6
20240527044027 53 123 0.0 0.0 0.00 0.00 0.00 89 1007.7
20240527043953 53 123 0.0 0.0 0.00 0.00 0.00 89 1007.5
20240527043925 53 123 0.0 0.0 0.00 0.00 0.00 89 1007.7
20240527043854 53 123 0.0 0.0 0.00 0.00 0.00 89 1007.6
20240527043554 53 123 0.0 0.0 0.00 0.00 0.00 89 1007.6
20240527043451 53 123 0.0 0.0 0.00 0.00 0.00 89 1007.7
20240527043352 53 123 0.0 0.0 0.00 0.00 0.00 88 1007.7
20240527043249 53 123 0.0 0.0 0.00 0.00 0.00 88 1007.7
20240527043130 53 123 0.0 0.0 0.00 0.00 0.00 88 1007.7
20240527043059 54 123 0.0 0.0 0.00 0.00 0.00 88 1007.7
20240527043049 53 123 0.0 0.0 0.00 0.00 0.00 88 1007.7
20240527043018 53 123 0.0 0.0 0.00 0.00 0.00 88 1007.7
20240527042946 53 123 0.0 0.0 0.00 0.00 0.00 88 1007.6
20240527042917 53 123 0.0 0.0 0.00 0.00 0.00 88 1007.7
20240527042847 54 123 0.0 0.0 0.00 0.00 0.00 88 1007.7
20240527042541 54 123 0.0 0.0 0.00 0.00 0.00 88 1007.7
20240527042437 54 123 0.0 0.0 0.00 0.00 0.00 88 1007.6
20240527042336 54 123 0.0 0.0 0.00 0.00 0.00 88 1007.6
20240527042234 54 123 0.0 0.0 0.00 0.00 0.00 88 1007.6
20240527042129 54 123 0.0 0.0 0.00 0.00 0.00 88 1007.6
20240527042032 54 123 0.0 0.0 0.00 0.00 0.00 88 1007.7
20240527041932 54 123 0.0 0.0 0.00 0.00 0.00 87 1007.7
20240527041832 54 123 0.0 0.0 0.00 0.00 0.00 87 1007.6
20240527041729 54 123 0.0 0.0 0.00 0.00 0.00 87 1007.7
20240527041628 54 123 0.0 0.0 0.00 0.00 0.00 87 1007.6
20240527041525 54 123 0.0 0.0 0.00 0.00 0.00 87 1007.6
20240527041453 54 123 0.0 0.0 0.00 0.00 0.00 87 1007.6
20240527041355 54 123 0.0 0.0 0.00 0.00 0.00 87 1007.6
20240527041256 54 123 0.0 0.0 0.00 0.00 0.00 86 1007.6
20240527041129 54 123 0.0 0.0 0.00 0.00 0.00 86 1007.6
20240527041054 54 123 0.0 0.0 0.00 0.00 0.00 86 1007.6
20240527040955 54 123 0.0 0.0 0.00 0.00 0.00 86 1007.6
20240527040852 54 123 0.0 0.0 0.00 0.00 0.00 86 1007.6
20240527040750 54 123 0.0 0.0 0.00 0.00 0.00 86 1007.5
20240527040647 54 123 0.0 0.0 0.00 0.00 0.00 86 1007.6
20240527040630 54 123 0.0 0.0 0.00 0.00 0.00 86 1007.5
20240527040548 54 123 0.0 0.0 0.00 0.00 0.00 86 1007.5
20240527040446 55 123 0.0 0.0 0.00 0.00 0.00 86 1007.6
20240527040346 55 123 0.0 0.0 0.00 0.00 0.00 86 1007.5
20240527040236 55 123 0.0 0.0 0.00 0.00 0.00 86 1007.6
20240527040142 55 123 0.0 0.0 0.00 0.00 0.00 85 1007.5
20240527040130 55 123 0.0 0.0 0.00 0.00 0.00 85 1007.6
20240527040038 55 123 0.0 0.0 0.00 0.00 0.00 85 1007.4
20240527035937 55 123 0.0 0.0 0.00 0.00 0.00 85 1007.4
20240527035835 55 123 0.0 0.0 0.00 0.00 0.00 85 1007.4
20240527035736 55 123 0.0 0.0 0.00 0.00 0.00 85 1007.4
20240527035640 55 123 0.0 0.0 0.00 0.00 0.00 85 1007.5
20240527035628 55 123 0.0 0.0 0.00 0.00 0.00 85 1007.4
20240527035536 55 123 0.0 0.0 0.00 0.00 0.00 85 1007.4
20240527035432 55 123 0.0 0.0 0.00 0.00 0.00 85 1007.5
20240527035330 55 123 0.0 0.0 0.00 0.00 0.00 84 1007.5
20240527035224 55 123 0.0 0.0 0.00 0.00 0.00 84 1007.5
20240527035129 55 123 0.0 0.0 0.00 0.00 0.00 84 1007.5
20240527035123 55 123 0.0 0.0 0.00 0.00 0.00 84 1007.5
20240527035023 55 123 0.0 0.0 0.00 0.00 0.00 84 1007.4
20240527034925 55 123 0.0 0.0 0.00 0.00 0.00 84 1007.5
20240527034819 55 123 0.0 0.0 0.00 0.00 0.00 84 1007.4
20240527034719 55 123 0.0 0.0 0.00 0.00 0.00 83 1007.4
20240527034626 55 123 0.0 0.0 0.00 0.00 0.00 83 1007.4
20240527034619 55 123 0.0 0.0 0.00 0.00 0.00 83 1007.4
20240527034518 55 123 0.0 0.0 0.00 0.00 0.00 83 1007.3
20240527034415 55 123 0.0 0.0 0.00 0.00 0.00 83 1007.4
20240527034311 56 123 0.0 0.0 0.00 0.00 0.00 83 1007.4
20240527034207 56 123 0.0 0.0 0.00 0.00 0.00 82 1007.4
20240527034127 56 123 0.0 0.0 0.00 0.00 0.00 82 1007.4
20240527034109 56 123 0.0 0.0 0.00 0.00 0.00 83 1007.4
20240527034005 56 123 0.0 0.0 0.00 0.00 0.00 82 1007.4
20240527033902 56 123 0.0 0.0 0.00 0.00 0.00 82 1007.4
20240527033803 56 123 0.0 0.0 0.00 0.00 0.00 82 1007.5
20240527033625 56 123 0.0 0.0 0.00 0.00 0.00 82 1007.4
20240527033600 56 123 0.0 0.0 0.00 0.00 0.00 82 1007.4
20240527033542 56 123 0.0 0.0 0.00 0.00 0.00 82 1007.4
20240527033440 56 123 0.0 0.0 0.00 0.00 0.00 82 1007.5
20240527033409 56 123 0.0 0.0 0.00 0.00 0.00 82 1007.4
20240527033339 56 123 0.0 0.0 0.00 0.00 0.00 82 1007.4
20240527033028 56 123 0.0 0.0 0.00 0.00 0.00 82 1007.5
20240527032929 56 123 0.0 0.0 0.00 0.00 0.00 82 1007.5
20240527032829 56 123 0.0 0.0 0.00 0.00 0.00 81 1007.5
20240527032726 56 123 0.0 0.0 0.00 0.00 0.00 81 1007.4
20240527032622 57 123 0.0 0.0 0.00 0.00 0.00 81 1007.4
20240527032550 57 123 0.0 0.0 0.00 0.00 0.00 81 1007.5
20240527032537 57 123 0.0 0.0 0.00 0.00 0.00 81 1007.4
20240527032506 57 123 0.0 0.0 0.00 0.00 0.00 81 1007.5
20240527032430 57 123 0.0 0.0 0.00 0.00 0.00 81 1007.5
20240527032401 57 123 0.0 0.0 0.00 0.00 0.00 81 1007.5
20240527032121 57 123 0.0 0.0 0.00 0.00 0.00 81 1007.5
20240527032018 57 123 0.0 0.0 0.00 0.00 0.00 81 1007.5
20240527031916 57 123 0.0 0.0 0.00 0.00 0.00 81 1007.5
20240527031815 57 123 0.0 0.0 0.00 0.00 0.00 80 1007.5
20240527031714 57 123 0.0 0.0 0.00 0.00 0.00 80 1007.4
20240527031613 57 123 0.0 0.0 0.00 0.00 0.00 80 1007.4
20240527031548 58 123 0.0 0.0 0.00 0.00 0.00 79 1007.5
20240527031527 57 123 0.0 0.0 0.00 0.00 0.00 80 1007.5
20240527031455 57 123 0.0 0.0 0.00 0.00 0.00 80 1007.5
20240527031420 58 123 0.0 0.0 0.00 0.00 0.00 80 1007.5
20240527031352 58 123 0.0 0.0 0.00 0.00 0.00 79 1007.5
20240527031104 58 123 0.0 0.0 0.00 0.00 0.00 79 1007.4
20240527031003 58 123 0.0 0.0 0.00 0.00 0.00 79 1007.5
20240527030903 58 123 0.0 0.0 0.00 0.00 0.00 79 1007.5
20240527030747 58 123 0.0 0.0 0.00 0.00 0.00 79 1007.6
20240527030623 58 123 0.0 0.0 0.00 0.00 0.00 79 1007.5
20240527030543 58 123 0.0 0.0 0.00 0.00 0.00 79 1007.6
20240527030437 58 123 0.0 0.0 0.00 0.00 0.00 79 1007.5
20240527030337 58 123 0.0 0.0 0.00 0.00 0.00 78 1007.6
20240527030234 59 123 0.0 0.0 0.00 0.00 0.00 78 1007.5
20240527030125 59 123 0.0 0.0 0.00 0.00 0.00 78 1007.5
20240527030031 59 123 0.0 0.0 0.00 0.00 0.00 78 1007.5
20240527025929 59 123 0.0 0.0 0.00 0.00 0.00 78 1007.5
20240527025832 59 123 0.0 0.0 0.00 0.00 0.00 78 1007.5
20240527025730 59 123 0.0 0.0 0.00 0.00 0.00 77 1007.6
20240527025624 59 123 0.0 0.0 0.00 0.00 0.00 77 1007.6
20240527025530 59 123 0.0 0.0 0.00 0.00 0.00 77 1007.5
20240527025428 60 123 0.0 0.0 0.00 0.00 0.00 77 1007.5
20240527025327 60 123 0.0 0.0 0.00 0.00 0.00 78 1007.5
20240527025224 60 123 0.0 0.0 0.00 0.00 0.00 78 1007.5
20240527025125 60 123 0.0 0.0 0.00 0.00 0.00 78 1007.4
20240527025110 60 123 0.0 0.0 0.00 0.00 0.00 78 1007.3
20240527025050 60 123 0.0 0.0 0.00 0.00 0.00 78 1007.4
20240527025022 60 123 0.0 0.0 0.00 0.00 0.00 78 1007.4
20240527024933 60 123 0.0 0.0 0.00 0.00 0.00 78 1007.4
20240527024907 60 123 0.0 0.0 0.00 0.00 0.00 78 1007.4
20240527024835 60 123 0.0 0.0 0.00 0.00 0.00 78 1007.3
20240527024526 60 123 0.0 0.0 0.00 0.00 0.00 78 1007.3
20240527024425 60 123 0.0 0.0 0.00 0.00 0.00 78 1007.3
20240527024330 60 123 0.0 0.0 0.00 0.00 0.00 78 1007.3
20240527024223 60 123 0.0 0.0 0.00 0.00 0.00 78 1007.3
20240527024125 60 123 0.0 0.0 0.00 0.00 0.00 78 1007.3
20240527024059 60 123 0.0 0.0 0.00 0.00 0.00 78 1007.1
20240527024040 60 123 0.0 0.0 0.00 0.00 0.00 77 1007.3
20240527024011 60 123 0.0 0.0 0.00 0.00 0.00 78 1007.3
20240527023939 60 123 0.0 0.0 0.00 0.00 0.00 78 1007.2
20240527023907 60 123 0.0 0.0 0.00 0.00 0.00 77 1007.2
20240527023837 60 123 0.0 0.0 0.00 0.00 0.00 78 1007.1
20240527023524 60 123 0.0 0.0 0.00 0.00 0.00 78 1007.1
20240527023425 60 123 0.0 0.0 0.00 0.00 0.00 78 1007.1
20240527023326 60 123 0.0 0.0 0.00 0.00 0.00 78 1007.1
20240527023223 60 123 0.0 0.0 0.00 0.00 0.00 78 1007.1
20240527023126 60 123 0.0 0.0 0.00 0.00 0.00 77 1007.0
20240527023054 60 123 0.0 0.0 0.00 0.00 0.00 76 1006.9
20240527023038 60 123 0.0 0.0 0.00 0.00 0.00 77 1007.0
20240527023009 60 123 0.0 0.0 0.00 0.00 0.00 76 1007.0
20240527022939 60 123 0.0 0.0 0.00 0.00 0.00 76 1007.0
20240527022906 60 123 0.0 0.0 0.00 0.00 0.00 76 1006.8
20240527022837 60 123 0.0 0.0 0.00 0.00 0.00 76 1006.9
20240527022525 60 123 0.0 0.0 0.00 0.00 0.00 76 1006.9
20240527022424 60 123 0.0 0.0 0.00 0.00 0.00 76 1006.9
20240527022325 60 123 0.0 0.0 0.00 0.00 0.00 75 1006.9
20240527022223 61 123 0.0 0.0 0.00 0.00 0.00 75 1006.8
20240527022125 61 123 0.0 0.0 0.00 0.00 0.00 75 1006.8
20240527022024 61 123 0.0 0.0 0.00 0.00 0.00 75 1006.7
20240527021925 61 123 0.0 0.0 0.00 0.00 0.00 75 1006.7
20240527021824 61 123 0.0 0.0 0.00 0.00 0.00 75 1006.7
20240527021726 61 123 0.0 0.0 0.00 0.00 0.00 75 1006.7
20240527021625 61 123 0.0 0.0 0.00 0.00 0.00 74 1006.7
20240527021524 61 123 0.0 0.0 0.00 0.00 0.00 74 1006.7
20240527021426 61 123 0.0 0.0 0.00 0.00 0.00 74 1006.6
20240527021329 61 123 0.0 0.0 0.00 0.00 0.00 73 1006.6
20240527021225 61 123 0.0 0.0 0.00 0.00 0.00 72 1006.6
20240527021126 61 123 0.0 0.0 0.00 0.00 0.00 72 1006.6
20240527021024 61 123 0.0 0.0 0.00 0.00 0.00 72 1006.6
20240527020927 62 123 0.0 0.0 0.00 0.00 0.00 72 1006.6
20240527020823 62 123 0.0 0.0 0.00 0.00 0.00 72 1006.6
20240527020724 62 123 0.0 0.0 0.00 0.00 0.00 71 1006.6
20240527020604 62 123 0.0 0.0 0.00 0.00 0.00 71 1006.6
20240527020526 62 123 0.0 0.0 0.00 0.00 0.00 71 1006.6
20240527020425 62 123 0.0 0.0 0.00 0.00 0.00 71 1006.5
20240527020305 62 123 0.0 0.0 0.00 0.00 0.00 71 1006.4
20240527020204 62 123 0.0 0.0 0.00 0.00 0.00 71 1006.4
20240527020104 62 123 0.0 0.0 0.00 0.00 0.00 71 1006.5
20240527020003 62 123 0.0 0.0 0.00 0.00 0.00 70 1006.4
20240527015902 62 123 0.0 0.0 0.00 0.00 0.00 70 1006.4
20240527015748 62 123 0.0 0.0 0.00 0.00 0.00 70 1006.4
20240527015646 62 123 0.0 0.0 0.00 0.00 0.00 70 1006.3
20240527015602 62 123 0.0 0.0 0.00 0.00 0.00 70 1006.5
20240527015544 62 123 0.0 0.0 0.00 0.00 0.00 70 1006.5
20240527015443 62 123 0.0 0.0 0.00 0.00 0.00 70 1006.4
20240527015342 62 123 0.0 0.0 0.00 0.00 0.00 70 1006.4
20240527015241 63 121 0.0 0.0 0.00 0.00 0.00 69 1006.4
20240527015140 63 123 0.0 0.0 0.00 0.00 0.00 69 1006.4
20240527015104 63 123 0.0 0.0 0.00 0.00 0.00 69 1006.4
20240527015036 63 123 0.0 0.0 0.00 0.00 0.00 69 1006.4
20240527014935 63 123 0.0 0.0 0.00 0.00 0.00 69 1006.4
20240527014833 63 121 0.0 0.0 0.00 0.00 0.00 68 1006.4
20240527014738 63 123 0.0 0.0 0.00 0.00 0.00 68 1006.4
20240527014632 64 128 0.0 0.0 0.00 0.00 0.00 67 1006.3
20240527014603 64 128 0.0 0.0 0.00 0.00 0.00 67 1006.4
20240527014530 64 128 0.0 0.0 0.00 0.00 0.00 67 1006.4
20240527014426 64 128 0.0 0.0 0.00 0.00 0.00 67 1006.3
20240527014327 64 128 0.0 0.0 0.00 0.00 0.00 67 1006.3
20240527014223 64 128 0.0 0.0 0.00 0.00 0.00 67 1006.3
20240527014126 64 123 0.0 0.0 0.00 0.00 0.00 67 1006.3
20240527014025 64 123 0.0 0.0 0.00 0.00 0.00 67 1006.3
20240527013927 64 121 0.0 0.0 0.00 0.00 0.00 67 1006.3
20240527013823 64 121 0.0 0.0 0.00 0.00 0.00 66 1006.3
20240527013724 64 121 0.0 0.0 0.00 0.00 0.00 66 1006.3
20240527013625 64 110 0.0 0.0 0.00 0.00 0.00 66 1006.3
20240527013525 64 120 0.0 0.0 0.00 0.00 0.00 66 1006.3
20240527013504 65 120 0.0 0.0 0.00 0.00 0.00 65 1006.2
20240527013448 65 127 0.0 0.0 0.00 0.00 0.00 64 1006.2
20240527013435 65 120 0.0 0.0 0.00 0.00 0.00 65 1006.3
20240527013405 65 120 0.0 0.0 0.00 0.00 0.00 65 1006.3
20240527013308 65 123 0.0 0.0 0.00 0.00 0.00 65 1006.2
20240527013000 65 138 0.0 0.0 0.00 0.00 0.00 64 1006.2
20240527012851 65 141 0.0 0.0 0.00 0.00 0.00 64 1006.2
20240527012754 65 83 0.0 0.0 0.00 0.00 0.00 64 1006.1
20240527012654 65 59 0.0 0.0 0.00 0.00 0.00 63 1006.2
20240527012554 65 92 0.0 0.0 0.00 0.00 0.00 63 1006.2
20240527012528 65 114 0.0 0.0 0.00 0.00 0.00 63 1006.2
20240527012454 66 66 0.0 0.0 0.00 0.00 0.00 61 1006.1
20240527012403 66 66 0.0 0.0 0.00 0.00 0.00 61 1006.1
20240527012357 66 73 0.0 0.0 0.00 0.00 0.00 61 1006.1
20240527012344 66 66 0.0 0.0 0.00 0.00 0.00 61 1006.2
20240527012304 66 66 0.0 0.0 0.00 0.00 0.00 61 1006.0
20240527011959 66 72 0.0 0.0 0.00 0.00 0.00 60 1006.0
20240527011855 66 72 0.0 0.0 0.00 0.00 0.00 60 1006.0
20240527011758 66 72 0.0 0.0 0.00 0.00 0.00 60 1006.1
20240527011653 66 72 0.0 0.0 0.00 0.00 0.00 60 1006.0
20240527011526 66 72 0.0 0.0 0.00 0.00 0.00 60 1006.1
20240527011504 66 73 0.0 0.0 0.00 0.00 0.00 60 1006.0
20240527011445 67 76 0.0 0.0 0.00 0.00 0.00 59 1006.0
20240527011406 66 73 0.0 0.0 0.00 0.00 0.00 60 1006.0
20240527011307 67 76 0.0 0.0 0.00 0.00 0.00 59 1006.0
20240527010950 67 76 0.0 0.0 0.00 0.00 0.00 59 1006.0
20240527010849 67 76 0.0 0.0 0.00 0.00 0.00 59 1006.0
20240527010745 67 76 0.0 0.0 0.00 0.00 0.00 59 1006.0
20240527010645 67 75 0.0 0.0 0.00 0.00 0.00 58 1006.0
20240527010522 67 75 0.0 0.0 0.00 0.00 0.00 58 1006.0
20240527010502 67 75 0.0 0.0 0.00 0.00 0.00 57 1006.0
20240527010452 67 76 0.0 0.0 0.00 0.00 0.00 57 1006.0
20240527010446 67 76 0.0 0.0 0.00 0.00 0.00 57 1006.1
20240527010401 67 89 0.0 0.0 0.00 0.00 0.00 58 1006.0
20240527010257 67 85 0.0 0.0 0.00 0.00 0.00 57 1006.0
20240527005938 67 76 0.0 0.0 0.00 0.00 0.00 58 1006.0
20240527005836 68 71 0.0 0.0 0.00 0.00 0.00 57 1006.0
20240527005731 68 71 0.0 0.0 0.00 0.00 0.00 57 1006.0
20240527005635 68 71 0.0 0.0 0.00 0.00 0.00 57 1005.9
20240527005537 68 90 0.0 0.0 0.00 0.00 0.00 56 1005.9
20240527005524 68 71 0.0 0.0 0.00 0.00 0.00 56 1005.9
20240527005405 68 65 0.0 0.0 0.00 0.00 0.00 56 1005.9
20240527005238 68 65 0.0 0.0 0.00 0.00 0.00 56 1005.9
20240527005135 68 86 0.0 0.9 0.00 0.00 0.00 55 1005.9
20240527005024 68 86 0.0 0.9 0.00 0.00 0.00 55 1005.9
20240527005010 69 80 0.0 0.9 0.00 0.00 0.00 56 1005.8
20240527004912 69 61 0.0 0.9 0.00 0.00 0.00 56 1005.8
20240527004809 69 59 0.0 0.9 0.00 0.00 0.00 56 1005.8
20240527004706 69 83 0.0 0.9 0.00 0.00 0.00 57 1005.8
20240527004608 69 85 0.0 0.9 0.00 0.00 0.00 56 1005.9
20240527004524 69 85 0.0 0.9 0.00 0.00 0.00 56 1005.9
20240527004504 69 63 0.0 0.9 0.00 0.00 0.00 56 1005.9
20240527004403 69 104 0.0 0.9 0.00 0.00 0.00 58 1005.8
20240527004258 69 107 0.0 0.9 0.00 0.00 0.00 55 1005.9
20240527004155 69 76 0.0 0.0 0.00 0.00 0.00 56 1005.8
20240527004103 69 65 0.0 0.0 0.00 0.00 0.00 55 1005.8
20240527004026 69 65 0.0 0.0 0.00 0.00 0.00 55 1005.8
20240527003956 69 66 0.0 0.9 0.00 0.00 0.00 55 1005.8
20240527003855 69 58 0.0 0.9 0.00 0.00 0.00 56 1005.8
20240527003756 69 75 0.0 0.9 0.00 0.00 0.00 54 1005.8
20240527003652 69 75 0.0 0.9 0.00 0.00 0.00 54 1005.8
20240527003601 69 354 0.0 0.9 0.00 0.00 0.00 54 1005.8
20240527003525 69 354 0.0 0.9 0.00 0.00 0.00 54 1005.8
20240527003456 69 63 0.0 0.9 0.00 0.00 0.00 55 1005.7
20240527003358 69 65 0.0 0.9 0.00 0.00 0.00 56 1005.8
20240527003254 69 63 0.0 0.9 0.00 0.00 0.00 55 1005.8
20240527003156 70 76 0.0 0.9 0.00 0.00 0.00 54 1005.7
20240527003102 69 73 0.0 0.9 0.00 0.00 0.00 54 1005.8
20240527003025 69 73 0.0 0.9 0.00 0.00 0.00 54 1005.8
20240527002957 69 34 0.0 0.0 0.00 0.00 0.00 55 1005.7
20240527002854 70 48 0.0 0.0 0.00 0.00 0.00 55 1005.7
20240527002754 69 68 0.0 0.0 0.00 0.00 0.00 55 1005.7
20240527002655 69 54 0.0 0.0 0.00 0.00 0.00 54 1005.7
20240527002602 70 38 0.0 0.0 0.00 0.00 0.00 56 1005.8
20240527002528 70 38 0.0 0.0 0.00 0.00 0.00 56 1005.8
20240527002458 70 69 0.0 0.0 0.00 0.00 0.00 55 1005.7
20240527002353 69 69 0.0 0.0 0.00 0.00 0.00 55 1005.7
20240527002251 69 92 0.0 0.0 0.00 0.00 0.00 56 1005.7
20240527002154 69 86 0.0 0.0 0.00 0.00 0.00 56 1005.7
20240527002059 69 24 0.0 0.0 0.00 0.00 0.00 55 1005.7
20240527002024 69 24 0.0 0.0 0.00 0.00 0.00 55 1005.7
20240527001958 69 52 0.0 0.0 0.00 0.00 0.00 56 1005.8
20240527001857 69 24 0.0 0.0 0.00 0.00 0.00 56 1005.7
20240527001755 69 14 0.0 0.0 0.00 0.00 0.00 57 1005.7
20240527001655 69 65 0.0 0.0 0.00 0.00 0.00 56 1005.7
20240527001600 70 65 0.0 0.0 0.00 0.00 0.00 55 1005.7
20240527001523 70 65 0.0 0.0 0.00 0.00 0.00 55 1005.7
20240527001500 70 68 0.0 0.0 0.00 0.00 0.00 55 1005.6
20240527001358 70 66 0.0 0.0 0.00 0.00 0.00 55 1005.6
20240527001222 70 82 0.0 0.0 0.00 0.00 0.00 56 1005.6
20240527001125 70 79 0.0 0.0 0.00 0.00 0.00 56 1005.6
20240527001022 70 78 0.0 0.0 0.00 0.00 0.00 56 1005.6
20240527000950 70 61 0.0 0.0 0.00 0.00 0.00 56 1005.3
20240527000936 70 75 0.0 0.0 0.00 0.00 0.00 54 1005.5
20240527000905 70 93 0.0 0.0 0.00 0.00 0.00 56 1005.5
20240527000838 70 109 0.0 0.0 0.00 0.00 0.00 56 1005.5
20240527000805 70 157 0.0 0.0 0.00 0.00 0.00 55 1005.3
20240527000735 70 61 0.0 0.0 0.00 0.00 0.00 56 1005.3
20240527000424 70 135 0.0 0.0 0.00 0.00 0.00 57 1005.2
20240527000325 70 55 0.0 0.0 0.00 0.00 0.00 57 1005.2
20240527000222 70 94 0.0 0.0 0.00 0.00 0.00 57 1005.3
20240527000124 71 62 0.0 0.0 0.00 0.00 0.00 57 1005.3
20240527000024 70 59 0.0 0.0 0.00 0.00 0.00 58 1005.3
20240526235955 71 39 0.0 0.0 0.00 0.00 0.00 58 1005.5
20240526235940 70 0 0.0 0.0 0.00 0.00 0.00 56 1005.3
20240526235908 70 39 0.0 0.0 0.00 0.00 0.00 56 1005.3
20240526235839 71 63 0.0 0.0 0.00 0.00 0.00 56 1005.5
20240526235806 71 73 0.0 0.0 0.00 0.00 0.00 57 1005.5
20240526235739 71 39 0.0 0.0 0.00 0.00 0.00 58 1005.5
20240526235424 70 42 0.0 0.0 0.00 0.00 0.00 57 1005.5
20240526235324 70 44 0.0 0.0 0.00 0.00 0.00 56 1005.3
20240526235223 70 14 0.0 0.0 0.00 0.00 0.00 58 1005.3
20240526235124 70 38 0.0 0.0 0.00 0.00 0.00 57 1005.3
20240526235030 70 34 0.0 0.0 0.00 0.00 0.00 57 1005.3
20240526234953 70 24 0.0 0.0 0.00 0.00 0.00 59 1005.2
20240526234939 70 35 0.0 0.0 0.00 0.00 0.00 57 1005.3
20240526234908 70 34 0.0 0.0 0.00 0.00 0.00 57 1005.3
20240526234840 70 55 0.0 0.0 0.00 0.00 0.00 57 1005.3
20240526234808 70 51 0.0 0.0 0.00 0.00 0.00 57 1005.3
20240526234737 70 24 0.0 0.0 0.00 0.00 0.00 59 1005.2
20240526234425 70 0 0.0 0.0 0.00 0.00 0.00 60 1005.2
20240526234325 70 0 0.0 0.0 0.00 0.00 0.00 58 1005.2
20240526234223 70 82 0.0 0.0 0.00 0.00 0.00 60 1005.3
20240526234123 70 25 0.0 0.0 0.00 0.00 0.00 60 1005.2
20240526234025 70 51 0.0 0.0 0.00 0.00 0.00 57 1005.3
20240526233926 70 63 0.0 0.0 0.00 0.00 0.00 59 1005.3
20240526233823 70 90 0.0 0.0 0.00 0.00 0.00 60 1005.5
20240526233725 70 14 0.0 0.0 0.00 0.00 0.00 59 1005.3
20240526233622 70 97 0.0 0.0 0.00 0.00 0.00 58 1005.5
20240526233525 70 104 0.0 0.0 0.00 0.00 0.00 59 1005.3
20240526233425 71 6 0.0 0.0 0.00 0.00 0.00 59 1005.3
20240526233325 71 55 0.0 0.0 0.00 0.00 0.00 59 1005.3
20240526233223 71 173 0.0 0.0 0.00 0.00 0.00 60 1005.5
20240526233129 71 76 0.0 0.0 0.00 0.00 0.00 60 1005.3
20240526233025 71 76 0.0 0.0 0.00 0.00 0.00 60 1005.3
20240526232928 71 76 0.0 0.0 0.00 0.00 0.00 60 1005.3
20240526232824 71 75 0.0 0.0 0.00 0.00 0.00 60 1005.3
20240526232726 71 71 0.0 0.0 0.00 0.00 0.00 61 1005.3
20240526232628 71 73 0.0 0.0 0.00 0.00 0.00 61 1005.2
20240526232525 71 73 0.0 0.0 0.00 0.00 0.00 60 1005.2
20240526232506 71 73 0.0 0.0 0.00 0.00 0.00 60 1005.3
20240526232425 71 73 0.0 0.0 0.00 0.00 0.00 61 1005.3
20240526232325 71 78 0.0 0.0 0.00 0.00 0.00 62 1005.3
20240526232223 70 82 0.0 0.0 0.00 0.00 0.00 62 1005.3
20240526232127 70 23 0.0 0.0 0.00 0.00 0.00 60 1005.3
20240526232022 70 18 0.0 0.0 0.00 0.00 0.00 61 1005.3
20240526232006 70 51 0.0 0.0 0.00 0.00 0.00 61 1005.3
20240526231925 70 61 0.0 0.0 0.00 0.00 0.00 60 1005.3
20240526231822 70 21 0.0 0.0 0.00 0.00 0.00 59 1005.3
20240526231723 70 32 0.0 0.0 0.00 0.00 0.00 60 1005.3
20240526231624 70 66 0.0 0.0 0.00 0.00 0.00 61 1005.3
20240526231523 70 1 0.0 0.0 0.00 0.00 0.00 61 1005.2
20240526231504 70 1 0.0 0.0 0.00 0.00 0.00 61 1005.3
20240526231425 70 0 0.0 0.0 0.00 0.00 0.00 61 1005.3
20240526231322 70 52 0.0 0.0 0.00 0.00 0.00 61 1005.2
20240526231222 70 82 0.0 0.0 0.00 0.00 0.00 61 1005.3
20240526231124 70 79 0.0 0.0 0.00 0.00 0.00 61 1005.3
20240526231024 70 93 0.0 0.0 0.00 0.00 0.00 62 1005.3
20240526231005 70 93 0.0 0.0 0.00 0.00 0.00 62 1005.5
20240526230926 71 93 0.0 0.0 0.00 0.00 0.00 61 1005.5
20240526230823 71 85 0.0 0.0 0.00 0.00 0.00 60 1005.3
20240526230724 71 79 0.0 0.0 0.00 0.00 0.00 58 1005.5
20240526230624 71 56 0.0 0.0 0.00 0.00 0.00 60 1005.5
20240526230523 70 71 0.0 0.0 0.00 0.00 0.00 60 1005.3
20240526230505 70 76 0.0 0.0 0.00 0.00 0.00 62 1005.5
20240526230424 70 82 0.0 0.0 0.00 0.00 0.00 62 1005.5
20240526230323 70 21 0.0 0.0 0.00 0.00 0.00 61 1005.3
20240526230223 70 42 0.0 0.0 0.00 0.00 0.00 62 1005.3
20240526230124 70 17 0.0 0.0 0.00 0.00 0.00 61 1005.3
20240526230023 70 48 0.0 0.0 0.00 0.00 0.00 61 1005.3
20240526230002 70 189 0.0 0.0 0.00 0.00 0.00 62 1005.3
20240526225925 70 186 0.0 0.0 0.00 0.00 0.00 62 1005.2
20240526225823 71 48 0.0 0.0 0.00 0.00 0.00 61 1005.2
20240526225725 71 90 0.0 0.0 0.00 0.00 0.00 61 1005.2
20240526225623 71 285 0.0 0.0 0.00 0.00 0.00 62 1005.2
20240526225522 71 71 0.0 0.0 0.00 0.00 0.00 60 1005.2
20240526225502 71 78 0.0 0.0 0.00 0.00 0.00 60 1005.3
20240526225435 72 69 0.0 0.0 0.00 0.00 0.00 62 1005.3
20240526225427 71 127 0.0 0.0 0.00 0.00 0.00 60 1005.3
20240526225357 72 23 0.0 0.0 0.00 0.00 0.00 58 1005.3
20240526225329 72 44 0.0 0.0 0.00 0.00 0.00 62 1005.5
20240526225301 72 87 0.0 0.0 0.00 0.00 0.00 62 1005.5
20240526225227 72 76 0.0 0.0 0.00 0.00 0.00 62 1005.3
20240526224925 72 68 0.0 0.0 0.00 0.00 0.00 61 1005.3
20240526224823 72 75 0.0 0.0 0.00 0.00 0.00 62 1005.3
20240526224724 72 65 0.0 0.0 0.00 0.00 0.00 60 1005.5
20240526224624 72 65 0.0 0.0 0.00 0.00 0.00 65 1005.5
20240526224523 72 71 0.0 0.0 0.00 0.00 0.00 69 1005.5
20240526224503 71 71 0.0 0.0 0.00 0.00 0.00 69 1005.3
20240526224448 69 104 0.0 0.9 0.00 0.00 0.00 67 1005.5
20240526224434 71 71 0.0 0.0 0.00 0.00 0.00 68 1005.3
20240526224402 70 69 0.0 0.0 0.00 0.00 0.00 66 1005.3
20240526224330 70 69 0.0 0.0 0.00 0.00 0.00 64 1005.5
20240526224301 69 71 0.0 0.0 0.00 0.00 0.00 64 1005.5
20240526224227 69 104 0.0 0.9 0.00 0.00 0.00 67 1005.5
20240526223925 69 109 0.0 0.9 0.00 0.00 0.00 69 1005.5
20240526223823 69 107 0.0 0.9 0.00 0.00 0.00 68 1005.5
20240526223723 68 78 0.0 0.9 0.00 0.00 0.00 67 1005.5
20240526223623 68 68 0.0 0.9 0.00 0.00 0.00 67 1005.5
20240526223524 68 76 0.0 0.9 0.00 0.00 0.00 67 1005.5
20240526223504 69 93 0.0 0.9 0.00 0.00 0.00 64 1005.5
20240526223425 69 93 0.0 0.9 0.00 0.00 0.00 64 1005.5
20240526223353 69 83 0.0 0.0 0.00 0.00 0.00 65 1005.5
20240526223343 69 93 0.0 0.9 0.00 0.00 0.00 64 1005.6
20240526223320 69 93 0.0 0.9 0.00 0.00 0.00 64 1005.5
20240526223259 69 107 0.0 0.9 0.00 0.00 0.00 64 1005.5
20240526223226 69 97 0.0 0.0 0.00 0.00 0.00 65 1005.6
20240526222925 69 72 0.0 0.0 0.00 0.00 0.00 65 1005.5
20240526222824 69 71 0.0 0.0 0.00 0.00 0.00 65 1005.5
20240526222722 69 23 0.0 0.0 0.00 0.00 0.00 65 1005.5
20240526222623 69 47 0.0 0.0 0.00 0.00 0.00 66 1005.3
20240526222523 69 65 0.0 1.7 0.00 0.00 0.00 66 1005.3
20240526222458 69 63 0.0 1.7 0.00 0.00 0.00 66 1005.5
20240526222426 69 71 0.0 1.7 0.00 0.00 0.00 66 1005.5
20240526222416 69 85 0.0 1.7 0.00 0.00 0.00 65 1005.3
20240526222352 70 63 0.0 1.7 0.00 0.00 0.00 65 1005.5
20240526222322 70 63 0.0 1.7 0.00 0.00 0.00 66 1005.3
20240526222254 70 80 0.0 1.7 0.00 0.00 0.00 67 1005.3
20240526222223 69 42 0.0 1.7 0.00 0.00 0.00 67 1005.2
20240526221925 69 113 0.0 1.7 0.00 0.00 0.00 65 1005.3
20240526221823 70 76 0.0 1.7 0.00 0.00 0.00 64 1005.3
20240526221722 70 79 0.0 1.7 0.00 0.00 0.00 65 1005.3
20240526221623 70 128 0.0 1.7 0.00 0.00 0.00 65 1005.3
20240526221524 70 71 0.0 0.9 0.00 0.00 0.00 66 1005.3
20240526221453 70 71 0.0 0.9 0.00 0.00 0.00 66 1005.3
20240526221424 69 63 0.0 0.9 0.00 0.00 0.00 66 1005.3
20240526221324 69 94 0.0 0.9 0.00 0.00 0.00 68 1005.2
20240526221221 69 58 0.0 0.9 0.00 0.00 0.00 68 1005.2
20240526221120 68 62 0.0 0.9 0.00 0.00 0.00 67 1005.2
20240526221017 68 56 0.0 0.9 0.00 0.00 0.00 67 1005.3
20240526220950 68 87 0.0 0.9 0.00 0.00 0.00 67 1005.3
20240526220917 68 75 0.0 0.0 0.00 0.00 0.00 67 1005.2
20240526220909 68 0 0.0 0.0 0.00 0.00 0.00 66 1005.2
20240526220843 68 61 0.0 0.0 0.00 0.00 0.00 67 1005.2
20240526220818 68 63 0.0 0.0 0.00 0.00 0.00 67 1005.2
20240526220750 68 39 0.0 0.0 0.00 0.00 0.00 66 1005.2
20240526220719 68 0 0.0 0.0 0.00 0.00 0.00 66 1005.2
20240526220411 68 18 0.0 0.0 0.00 0.00 0.00 66 1005.2
20240526220308 68 0 0.0 0.0 0.00 0.00 0.00 65 1005.2
20240526220208 69 100 0.0 0.0 0.00 0.00 0.00 67 1005.2
20240526220104 69 0 0.0 0.0 0.00 0.00 0.00 67 1005.2
20240526220007 69 0 0.0 0.0 0.00 0.00 0.00 65 1005.3
20240526215953 69 358 0.0 0.0 0.00 0.00 0.00 65 1005.3
20240526215926 69 68 0.0 0.9 0.00 0.00 0.00 68 1005.3
20240526215913 69 31 0.0 0.0 0.00 0.00 0.00 67 1005.2
20240526215843 69 48 0.0 0.9 0.00 0.00 0.00 66 1005.3
20240526215811 69 54 0.0 0.9 0.00 0.00 0.00 65 1005.2
20240526215742 69 66 0.0 0.9 0.00 0.00 0.00 68 1005.3
20240526215709 69 72 0.0 0.9 0.00 0.00 0.00 68 1005.3
20240526215402 69 61 0.0 0.9 0.00 0.00 0.00 70 1005.2
20240526215303 69 61 0.0 0.9 0.00 0.00 0.00 68 1005.3
20240526215203 69 62 0.0 0.9 0.00 0.00 0.00 69 1005.2
20240526215103 69 62 0.0 0.9 0.00 0.00 0.00 67 1005.3
20240526215005 69 14 0.0 0.9 0.00 0.00 0.00 67 1005.2
20240526214949 69 14 0.0 0.9 0.00 0.00 0.00 67 1005.2
20240526214905 69 72 0.0 0.9 0.00 0.00 0.00 67 1005.3
20240526214853 69 113 0.0 0.0 0.00 0.00 0.00 70 1005.3
20240526214831 69 58 0.0 0.0 0.00 0.00 0.00 67 1005.3
20240526214808 69 49 0.0 0.0 0.00 0.00 0.00 69 1005.3
20240526214739 69 202 0.0 0.0 0.00 0.00 0.00 70 1005.2
20240526214708 69 61 0.0 0.0 0.00 0.00 0.00 70 1005.3
20240526214359 68 41 0.0 0.0 0.00 0.00 0.00 69 1005.3
20240526214258 68 58 0.0 0.0 0.00 0.00 0.00 68 1005.3
20240526214157 68 71 0.0 0.0 0.00 0.00 0.00 68 1005.3
20240526214055 68 75 0.0 0.0 0.00 0.00 0.00 68 1005.5
20240526213958 68 56 0.0 0.0 0.00 0.00 0.00 70 1005.3
20240526213946 68 56 0.0 0.0 0.00 0.00 0.00 68 1005.3
20240526213917 68 69 0.0 0.0 0.00 0.00 0.00 69 1005.3
20240526213903 68 80 0.0 0.0 0.00 0.00 0.00 68 1005.3
20240526213835 69 45 0.0 0.0 0.00 0.00 0.00 68 1005.5
20240526213807 69 110 0.0 0.0 0.00 0.00 0.00 69 1005.5
20240526213737 69 42 0.0 0.0 0.00 0.00 0.00 70 1005.5
20240526213701 68 69 0.0 0.0 0.00 0.00 0.00 69 1005.3
20240526213345 68 69 0.0 0.0 0.00 0.00 0.00 69 1005.7
20240526213244 68 68 0.0 0.0 0.00 0.00 0.00 69 1005.5
20240526213145 68 79 0.0 0.0 0.00 0.00 0.00 68 1005.6
20240526213112 68 89 0.0 0.0 0.00 0.00 0.00 68 1005.5
20240526212942 68 0 0.0 0.0 0.00 0.00 0.00 69 1005.6
20240526212909 68 7 0.0 0.0 0.00 0.00 0.00 71 1005.5
20240526212806 68 0 0.0 0.0 0.00 0.00 0.00 70 1005.6
20240526212704 68 0 0.0 0.0 0.00 0.00 0.00 70 1005.5
20240526212606 68 65 0.0 0.0 0.00 0.00 0.00 71 1005.6
20240526212441 68 72 0.0 0.0 0.00 0.00 0.00 72 1005.5
20240526212405 68 69 0.0 0.0 0.00 0.00 0.00 71 1005.6
20240526212303 68 66 0.0 0.0 0.00 0.00 0.00 71 1005.6
20240526212202 67 75 0.0 0.0 0.00 0.00 0.00 71 1005.6
20240526212108 67 54 0.0 0.0 0.00 0.00 0.00 73 1005.5
20240526211941 67 90 0.0 0.0 0.00 0.00 0.00 72 1005.5
20240526211902 67 90 0.0 0.0 0.00 0.00 0.00 72 1005.6
20240526211801 67 90 0.0 0.0 0.00 0.00 0.00 73 1005.6
20240526211655 67 66 0.0 0.0 0.00 0.00 0.00 73 1005.6
20240526211555 67 65 0.0 0.0 0.00 0.00 0.00 73 1005.5
20240526211455 67 61 0.0 0.0 0.00 0.00 0.00 73 1005.6
20240526211440 67 90 0.0 0.0 0.00 0.00 0.00 73 1005.6
20240526211352 67 34 0.0 0.0 0.00 0.00 0.00 73 1005.5
20240526211252 67 34 0.0 0.0 0.00 0.00 0.00 72 1005.5
20240526211155 67 34 0.0 0.0 0.00 0.00 0.00 72 1005.6
20240526211053 67 30 0.0 0.0 0.00 0.00 0.00 72 1005.6
20240526210956 67 0 0.0 0.0 0.00 0.00 0.00 72 1005.6
20240526210939 67 27 0.0 0.0 0.00 0.00 0.00 72 1005.5
20240526210853 67 0 0.0 0.0 0.00 0.00 0.00 72 1005.6
20240526210751 67 49 0.0 0.0 0.00 0.00 0.00 73 1005.6
20240526210653 67 111 0.0 0.0 0.00 0.00 0.00 74 1005.6
20240526210552 67 48 0.0 0.0 0.00 0.00 0.00 75 1005.6
20240526210455 66 66 0.0 0.0 0.00 0.00 0.00 74 1005.5
20240526210439 67 71 0.0 0.0 0.00 0.00 0.00 74 1005.5
20240526210352 66 0 0.0 0.0 0.00 0.00 0.00 74 1005.5
20240526210252 66 0 0.0 0.0 0.00 0.00 0.00 75 1005.6
20240526210153 66 55 0.0 0.0 0.00 0.00 0.00 75 1005.5
20240526210054 66 55 0.0 0.0 0.00 0.00 0.00 74 1005.5
20240526205937 66 55 0.0 0.0 0.00 0.00 0.00 73 1005.5
20240526205850 66 55 0.0 0.0 0.00 0.00 0.00 73 1005.5
20240526205750 66 55 0.0 0.0 0.00 0.00 0.00 73 1005.5
20240526205650 66 58 0.0 0.0 0.00 0.00 0.00 74 1005.3
20240526205549 66 59 0.0 0.0 0.00 0.00 0.00 73 1005.3
20240526205449 66 51 0.0 0.0 0.00 0.00 0.00 73 1005.3
20240526205437 66 59 0.0 0.0 0.00 0.00 0.00 73 1005.3
20240526205343 66 62 0.0 0.0 0.00 0.00 0.00 74 1005.5
20240526205246 66 66 0.0 0.0 0.00 0.00 0.00 74 1005.3
20240526205112 66 66 0.0 0.0 0.00 0.00 0.00 74 1005.5
20240526205009 66 68 0.0 0.0 0.00 0.00 0.00 73 1005.6
20240526204937 66 68 0.0 0.0 0.00 0.00 0.00 73 1005.6
20240526204907 66 68 0.0 0.0 0.00 0.00 0.00 73 1005.6
20240526204806 66 62 0.0 0.0 0.00 0.00 0.00 74 1005.3
20240526204704 66 68 0.0 0.0 0.00 0.00 0.00 74 1005.5
20240526204604 66 58 0.0 0.0 0.00 0.00 0.00 74 1005.3
20240526204505 66 52 0.0 0.0 0.00 0.00 0.00 74 1005.3
20240526204435 66 54 0.0 0.0 0.00 0.00 0.00 74 1005.3
20240526204404 66 55 0.0 0.0 0.00 0.00 0.00 74 1005.5
20240526204356 66 75 0.0 0.0 0.00 0.00 0.00 75 1005.5
20240526204334 66 66 0.0 0.0 0.00 0.00 0.00 75 1005.3
20240526204303 66 62 0.0 0.0 0.00 0.00 0.00 75 1005.5
20240526204235 66 75 0.0 0.0 0.00 0.00 0.00 76 1005.5
20240526204201 66 75 0.0 0.0 0.00 0.00 0.00 75 1005.5
20240526203901 66 51 0.0 0.0 0.00 0.00 0.00 75 1005.3
20240526203802 66 52 0.0 0.0 0.00 0.00 0.00 75 1005.3
20240526203700 65 52 0.0 0.0 0.00 0.00 0.00 76 1005.3
20240526203559 65 54 0.0 0.0 0.00 0.00 0.00 76 1005.3
20240526203459 65 54 0.0 0.0 0.00 0.00 0.00 76 1005.3
20240526203437 65 54 0.0 0.0 0.00 0.00 0.00 75 1005.3
20240526203412 65 73 0.0 0.0 0.00 0.00 0.00 75 1005.3
20240526203400 65 54 0.0 0.0 0.00 0.00 0.00 75 1005.3
20240526203331 65 54 0.0 0.0 0.00 0.00 0.00 75 1005.3
20240526203301 65 54 0.0 0.0 0.00 0.00 0.00 75 1005.2
20240526203233 65 54 0.0 0.0 0.00 0.00 0.00 76 1005.3
20240526203157 65 73 0.0 0.0 0.00 0.00 0.00 75 1005.3
20240526202842 65 75 0.0 0.0 0.00 0.00 0.00 75 1005.3
20240526202740 65 75 0.0 0.0 0.00 0.00 0.00 75 1005.3
20240526202638 65 76 0.0 0.0 0.00 0.00 0.00 75 1005.3
20240526202538 65 80 0.0 0.0 0.00 0.00 0.00 76 1005.3
20240526202434 65 82 0.0 0.0 0.00 0.00 0.00 76 1005.5
20240526202415 65 83 0.0 0.0 0.00 0.00 0.00 77 1005.5
20240526202354 65 85 0.0 0.0 0.00 0.00 0.00 76 1005.3
20240526202324 65 85 0.0 0.0 0.00 0.00 0.00 76 1005.3
20240526202247 65 83 0.0 0.0 0.00 0.00 0.00 76 1005.2
20240526202220 65 83 0.0 0.0 0.00 0.00 0.00 76 1005.2
20240526202143 65 83 0.0 0.0 0.00 0.00 0.00 77 1005.5
20240526201831 65 83 0.0 0.0 0.00 0.00 0.00 76 1005.3
20240526201730 65 83 0.0 0.0 0.00 0.00 0.00 76 1005.2
20240526201631 65 83 0.0 0.0 0.00 0.00 0.00 75 1005.3
20240526201532 65 86 0.0 0.0 0.00 0.00 0.00 75 1005.3
20240526201428 65 78 0.0 0.0 0.00 0.00 0.00 76 1005.2
20240526201324 65 78 0.0 0.0 0.00 0.00 0.00 76 1005.2
20240526201225 65 71 0.0 0.0 0.00 0.00 0.00 77 1005.2
20240526201122 65 72 0.0 0.0 0.00 0.00 0.00 77 1005.3
20240526201023 65 72 0.0 0.0 0.00 0.00 0.00 77 1005.2
20240526200932 65 71 0.0 0.0 0.00 0.00 0.00 77 1005.2
20240526200921 65 72 0.0 0.0 0.00 0.00 0.00 77 1005.1
20240526200818 65 75 0.0 0.0 0.00 0.00 0.00 77 1005.1
20240526200717 65 79 0.0 0.0 0.00 0.00 0.00 77 1005.1
20240526200649 65 76 0.0 0.0 0.00 0.00 0.00 76 1005.0
20240526200614 65 72 0.0 0.0 0.00 0.00 0.00 77 1005.1
20240526200514 65 78 0.0 0.0 0.00 0.00 0.00 76 1005.0
20240526200412 65 76 0.0 0.0 0.00 0.00 0.00 76 1005.1
20240526200312 65 66 0.0 0.0 0.00 0.00 0.00 76 1005.1
20240526200206 65 63 0.0 0.0 0.00 0.00 0.00 76 1005.1
20240526200103 65 63 0.0 0.0 0.00 0.00 0.00 77 1005.1
20240526200007 65 20 0.0 0.0 0.00 0.00 0.00 77 1005.1
20240526195929 65 68 0.0 0.0 0.00 0.00 0.00 77 1005.1
20240526195904 65 72 0.0 0.0 0.00 0.00 0.00 77 1005.0
20240526195855 65 104 0.0 0.0 0.00 0.00 0.00 79 1004.9
20240526195832 65 71 0.0 0.0 0.00 0.00 0.00 77 1005.0
20240526195800 65 69 0.0 0.0 0.00 0.00 0.00 78 1005.0
20240526195732 65 68 0.0 0.0 0.00 0.00 0.00 78 1004.9
20240526195703 65 102 0.0 0.0 0.00 0.00 0.00 78 1004.9
20240526195403 65 113 0.0 0.0 0.00 0.00 0.00 79 1004.9
20240526195301 65 114 0.0 0.0 0.00 0.00 0.00 79 1004.9
20240526195202 65 78 0.0 0.0 0.00 0.00 0.00 79 1004.9
20240526195100 65 78 0.0 0.0 0.00 0.00 0.00 79 1004.8
20240526195005 65 94 0.0 0.0 0.00 0.00 0.00 79 1004.8
20240526194929 65 87 0.0 0.0 0.00 0.00 0.00 80 1004.8
20240526194902 65 76 0.0 0.0 0.00 0.00 0.00 80 1004.9
20240526194857 64 76 0.0 0.0 0.00 0.00 0.00 80 1004.9
20240526194831 65 78 0.0 0.0 0.00 0.00 0.00 80 1004.8
20240526194803 65 76 0.0 0.0 0.00 0.00 0.00 79 1004.8
20240526194735 64 76 0.0 0.0 0.00 0.00 0.00 79 1004.8
20240526194703 64 76 0.0 0.0 0.00 0.00 0.00 80 1004.9
20240526194401 64 80 0.0 0.0 0.00 0.00 0.00 80 1004.9
20240526194259 64 76 0.0 0.0 0.00 0.00 0.00 80 1004.8
20240526194158 64 80 0.0 0.0 0.00 0.00 0.00 81 1005.0
20240526194056 64 85 0.0 0.0 0.00 0.00 0.00 82 1004.9
20240526193930 64 75 0.0 0.0 0.00 0.00 0.00 82 1005.0
20240526193906 63 79 0.0 0.0 0.00 0.00 0.00 82 1005.1
20240526193856 64 75 0.0 0.0 0.00 0.00 0.00 82 1005.0
20240526193828 64 78 0.0 0.0 0.00 0.00 0.00 82 1005.0
20240526193755 64 80 0.0 0.0 0.00 0.00 0.00 82 1005.0
20240526193724 64 66 0.0 0.0 0.00 0.00 0.00 82 1005.0
20240526193651 63 79 0.0 0.0 0.00 0.00 0.00 82 1005.1
20240526193337 63 78 0.0 0.0 0.00 0.00 0.00 82 1005.0
20240526193238 63 68 0.0 0.0 0.00 0.00 0.00 82 1005.0
20240526193135 63 90 0.0 0.9 0.00 0.00 0.00 82 1005.0
20240526193033 63 62 0.0 0.9 0.00 0.00 0.00 82 1005.0
20240526192932 63 83 0.0 0.9 0.00 0.00 0.00 82 1005.0
20240526192831 63 96 0.0 0.9 0.00 0.00 0.00 83 1005.0
20240526192731 63 113 0.0 0.9 0.00 0.00 0.00 83 1005.0
20240526192632 63 79 0.0 0.9 0.00 0.00 0.00 83 1005.0
20240526192532 63 73 0.0 0.9 0.00 0.00 0.00 83 1005.0
20240526192431 63 73 0.0 0.9 0.00 0.00 0.00 83 1005.0
20240526192331 63 75 0.0 0.9 0.00 0.00 0.00 84 1004.9
20240526192230 62 78 0.0 0.0 0.00 0.00 0.00 84 1005.0
20240526192131 62 80 0.0 0.0 0.00 0.00 0.00 85 1005.0
20240526192030 62 78 0.0 0.0 0.00 0.00 0.00 85 1005.0
20240526191934 62 82 0.0 0.0 0.00 0.00 0.00 86 1005.0
20240526191930 62 71 0.0 0.0 0.00 0.00 0.00 86 1005.0
20240526191828 62 140 0.0 0.0 0.00 0.00 0.00 86 1005.0
20240526191726 62 80 0.0 0.0 0.00 0.00 0.00 86 1005.1
20240526191623 62 82 0.0 0.0 0.00 0.00 0.00 86 1005.0
20240526191523 62 78 0.0 0.0 0.00 0.00 0.00 86 1005.0
20240526191430 62 79 0.0 0.0 0.00 0.00 0.00 86 1005.0
20240526191422 62 41 0.0 0.0 0.00 0.00 0.00 86 1005.0
20240526191319 62 65 0.0 0.0 0.00 0.00 0.00 86 1005.1
20240526191221 62 63 0.0 0.0 0.00 0.00 0.00 86 1005.0
20240526191117 62 56 0.0 0.0 0.00 0.00 0.00 86 1005.0
20240526191014 62 80 0.0 0.0 0.00 0.00 0.00 86 1005.0
20240526190927 62 152 0.0 0.0 0.00 0.00 0.00 86 1005.0
20240526190915 62 78 0.0 0.0 0.00 0.00 0.00 86 1005.0
20240526190813 61 76 0.0 0.0 0.00 0.00 0.00 86 1005.0
20240526190710 61 76 0.0 0.0 0.00 0.00 0.00 86 1005.0